Observation data for Stinnett on 04/23/2019      Previous  Date  Next       Current Mesonet Observations  Soil Data  Daily Summary Page  Observations in Plain Language
KST3 230500Z 36008KT 12/10 A3014 RMK A01 T01150097  RH  089%=      5-min Rain = 0
KST3 230501Z 36008KT 12/10 A3014 RMK A01 T01150098  RH  089%=      5-min Rain = 0
KST3 230502Z 36008KT 12/10 A3014 RMK A01 T01150098  RH  089%=      5-min Rain = 0
KST3 230503Z 36007KT 12/10 A3014 RMK A01 T01150099  RH  090%=      5-min Rain = 0
KST3 230504Z 00008KT 12/10 A3014 RMK A01 T01150099  RH  090%=      5-min Rain = 0
KST3 230505Z 00009KT 11/10 A3014 RMK A01 T01140099  RH  090%=      5-min Rain = 0
KST3 230506Z 00009KT 12/10 A3013 RMK A01 T01150099  RH  090%=      5-min Rain = 0
KST3 230507Z 00009KT 12/10 A3013 RMK A01 T01150099  RH  090%=      5-min Rain = 0
KST3 230508Z 00009KT 12/10 A3013 RMK A01 T01150099  RH  090%=      5-min Rain = 0
KST3 230509Z 36008KT 12/10 A3014 RMK A01 T01150100  RH  091%=      5-min Rain = 0
KST3 230510Z 00008KT 12/10 A3014 RMK A01 T01150100  RH  091%=      5-min Rain = 0
KST3 230511Z 36008KT 12/10 A3014 RMK A01 T01150100  RH  091%=      5-min Rain = 0
KST3 230512Z 36008KT 12/10 A3014 RMK A01 T01150100  RH  091%=      5-min Rain = 0
KST3 230513Z 36007KT 12/10 A3014 RMK A01 T01150100  RH  091%=      5-min Rain = 0
KST3 230514Z 36007KT 12/10 A3014 RMK A01 T01150100  RH  091%=      5-min Rain = 0
KST3 230515Z 35007KT 11/10 A3014 RMK A01 T01140100  RH  091%=      5-min Rain = 0
KST3 230516Z 36007KT 11/10 A3014 RMK A01 T01140100  RH  091%=      5-min Rain = 0
KST3 230517Z 35007KT 11/10 A3014 RMK A01 T01140100  RH  091%=      5-min Rain = 0
KST3 230518Z 36007KT 11/10 A3014 RMK A01 T01140100  RH  091%=      5-min Rain = 0
KST3 230519Z 36007KT 11/10 A3014 RMK A01 T01140100  RH  091%=      5-min Rain = 0
KST3 230520Z 36007KT 11/10 A3014 RMK A01 T01140100  RH  091%=      5-min Rain = 0
KST3 230521Z 35008KT 11/10 A3014 RMK A01 T01140101  RH  091%=      5-min Rain = 0
KST3 230522Z 35008KT 11/10 A3014 RMK A01 T01140101  RH  092%=      5-min Rain = 0
KST3 230523Z 35007KT 11/10 A3014 RMK A01 T01140101  RH  091%=      5-min Rain = 0
KST3 230524Z 35007KT 11/10 A3014 RMK A01 T01140100  RH  091%=      5-min Rain = 0
KST3 230525Z 34008KT 11/10 A3014 RMK A01 T01140101  RH  091%=      5-min Rain = 0
KST3 230526Z 35007KT 11/10 A3014 RMK A01 T01140100  RH  091%=      5-min Rain = 0
KST3 230527Z 34008KT 11/10 A3014 RMK A01 T01140100  RH  092%=      5-min Rain = 0
KST3 230528Z 35006KT 11/10 A3014 RMK A01 T01140101  RH  092%=      5-min Rain = 0
KST3 230529Z 35006KT 11/10 A3014 RMK A01 T01140101  RH  092%=      5-min Rain = 0
KST3 230530Z 35007KT 11/10 A3014 RMK A01 T01140101  RH  092%=      5-min Rain = 0
KST3 230531Z 35006KT 11/10 A3014 RMK A01 T01130101  RH  092%=      5-min Rain = 0
KST3 230532Z 35006KT 11/10 A3014 RMK A01 T01130101  RH  092%=      5-min Rain = 0
KST3 230533Z 34007KT 11/10 A3014 RMK A01 T01130102  RH  092%=      5-min Rain = 0
KST3 230534Z 35007KT 11/10 A3014 RMK A01 T01130101  RH  092%=      5-min Rain = 0
KST3 230535Z 34008KT 11/10 A3014 RMK A01 T01130102  RH  092%=      5-min Rain = 0
KST3 230536Z 35008KT 11/10 A3014 RMK A01 T01130101  RH  092%=      5-min Rain = 0
KST3 230537Z 35008KT 11/10 A3014 RMK A01 T01140102  RH  092%=      5-min Rain = 0
KST3 230538Z 35009KT 11/10 A3014 RMK A01 T01130101  RH  092%=      5-min Rain = 0
KST3 230539Z 35008KT 11/10 A3014 RMK A01 T01130101  RH  092%=      5-min Rain = 0
KST3 230540Z 35008KT 11/10 A3014 RMK A01 T01130101  RH  092%=      5-min Rain = 0
KST3 230541Z 35008KT 11/10 A3014 RMK A01 T01130101  RH  092%=      5-min Rain = 0
KST3 230542Z 35008KT 11/10 A3014 RMK A01 T01130101  RH  092%=      5-min Rain = 0
KST3 230543Z 35008KT 11/10 A3014 RMK A01 T01130101  RH  092%=      5-min Rain = 0
KST3 230544Z 35007KT 11/10 A3014 RMK A01 T01130101  RH  092%=      5-min Rain = 0
KST3 230545Z 35009KT 11/10 A3014 RMK A01 T01130102  RH  092%=      5-min Rain = 0
KST3 230546Z 35008KT 11/10 A3014 RMK A01 T01130101  RH  092%=      5-min Rain = 0
KST3 230547Z 36008KT 11/10 A3014 RMK A01 T01130101  RH  092%=      5-min Rain = 0
KST3 230548Z 36009KT 11/10 A3014 RMK A01 T01130102  RH  093%=      5-min Rain = 0
KST3 230549Z 35009KT 11/10 A3014 RMK A01 T01140102  RH  093%=      5-min Rain = 0
KST3 230550Z 35009KT 11/10 A3014 RMK A01 T01140102  RH  093%=      5-min Rain = 0
KST3 230551Z 35009KT 11/10 A3014 RMK A01 T01130102  RH  093%=      5-min Rain = 0
KST3 230552Z 35009KT 11/10 A3013 RMK A01 T01140102  RH  093%=      5-min Rain = 0
KST3 230553Z 35009KT 11/10 A3013 RMK A01 T01130102  RH  093%=      5-min Rain = 0
KST3 230554Z 35010KT 11/10 A3013 RMK A01 T01130102  RH  092%=      5-min Rain = 0
KST3 230555Z 35010KT 11/10 A3013 RMK A01 T01130101  RH  092%=      5-min Rain = 0
KST3 230556Z 35010KT 11/10 A3013 RMK A01 T01130102  RH  093%=      5-min Rain = 0
KST3 230557Z 35010KT 11/10 A3013 RMK A01 T01130102  RH  093%=      5-min Rain = 0
KST3 230558Z 36010KT 11/10 A3013 RMK A01 T01130102  RH  092%=      5-min Rain = 0
KST3 230559Z 36009KT 11/10 A3013 RMK A01 T01140102  RH  092%=      5-min Rain = 0
KST3 230600Z 35010KT 11/10 A3013 RMK A01 T01140102  RH  092%=      5-min Rain = 0
KST3 230601Z 35011KT 11/10 A3013 RMK A01 T01130101  RH  092%=      5-min Rain = 0
KST3 230602Z 35010KT 11/10 A3013 RMK A01 T01140101  RH  092%=      5-min Rain = 0
KST3 230603Z 36010KT 11/10 A3013 RMK A01 T01140100  RH  091%=      5-min Rain = 0
KST3 230604Z 36010KT 11/10 A3013 RMK A01 T01140101  RH  092%=      5-min Rain = 0
KST3 230605Z 35010KT 11/10 A3013 RMK A01 T01140101  RH  092%=      5-min Rain = 0
KST3 230606Z 00010KT 11/10 A3013 RMK A01 T01140101  RH  092%=      5-min Rain = 0
KST3 230607Z 00009KT 11/10 A3013 RMK A01 T01140101  RH  092%=      5-min Rain = 0
KST3 230608Z 00009KT 11/10 A3013 RMK A01 T01140102  RH  092%=      5-min Rain = 0
KST3 230609Z 00009KT 11/10 A3014 RMK A01 T01140102  RH  092%=      5-min Rain = 0
KST3 230610Z 00009KT 11/10 A3014 RMK A01 T01140102  RH  092%=      5-min Rain = 0
KST3 230611Z 00009KT 11/10 A3014 RMK A01 T01140102  RH  092%=      5-min Rain = 0
KST3 230612Z 00010KT 11/10 A3014 RMK A01 T01140102  RH  092%=      5-min Rain = 0
KST3 230613Z 00010KT 11/10 A3014 RMK A01 T01140101  RH  092%=      5-min Rain = 0
KST3 230614Z 00010KT 11/10 A3014 RMK A01 T01140101  RH  092%=      5-min Rain = 0
KST3 230615Z 00008KT 11/10 A3014 RMK A01 T01140101  RH  092%=      5-min Rain = 0
KST3 230616Z 00009KT 11/10 A3014 RMK A01 T01140101  RH  092%=      5-min Rain = 0
KST3 230617Z 36008KT 11/10 A3014 RMK A01 T01140102  RH  092%=      5-min Rain = 0
KST3 230618Z 00009KT 11/10 A3014 RMK A01 T01140102  RH  092%=      5-min Rain = 0
KST3 230619Z 36009KT 11/10 A3014 RMK A01 T01140102  RH  092%=      5-min Rain = 0
KST3 230620Z 00009KT 11/10 A3014 RMK A01 T01140102  RH  092%=      5-min Rain = 0
KST3 230621Z 00008KT 11/10 A3014 RMK A01 T01140102  RH  092%=      5-min Rain = 0
KST3 230622Z 01008KT 11/10 A3014 RMK A01 T01140102  RH  092%=      5-min Rain = 0
KST3 230623Z 01008KT 11/10 A3014 RMK A01 T01140103  RH  093%=      5-min Rain = 0
KST3 230624Z 00008KT 11/10 A3014 RMK A01 T01140103  RH  093%=      5-min Rain = 0
KST3 230625Z 01007KT 11/10 A3014 RMK A01 T01140103  RH  093%=      5-min Rain = 0
KST3 230626Z 01007KT 11/10 A3014 RMK A01 T01140103  RH  093%=      5-min Rain = 0
KST3 230627Z 01007KT 11/10 A3014 RMK A01 T01140103  RH  093%=      5-min Rain = 0
KST3 230628Z 00008KT 11/10 A3014 RMK A01 T01140104  RH  093%=      5-min Rain = 0
KST3 230629Z 01009KT 11/10 A3014 RMK A01 T01140103  RH  093%=      5-min Rain = 0
KST3 230630Z 01008KT 11/10 A3014 RMK A01 T01140102  RH  093%=      5-min Rain = 0
KST3 230631Z 01009KT 11/10 A3014 RMK A01 T01140102  RH  092%=      5-min Rain = 0
KST3 230632Z 02009KT 11/10 A3014 RMK A01 T01140102  RH  092%=      5-min Rain = 0
KST3 230633Z 02008KT 11/10 A3014 RMK A01 T01140102  RH  092%=      5-min Rain = 0
KST3 230634Z 02009KT 11/10 A3014 RMK A01 T01140102  RH  092%=      5-min Rain = 0
KST3 230635Z 02010KT 11/10 A3014 RMK A01 T01140102  RH  092%=      5-min Rain = 0
KST3 230636Z 02009KT 11/10 A3014 RMK A01 T01140101  RH  092%=      5-min Rain = 0
KST3 230637Z 02010KT 11/10 A3014 RMK A01 T01140102  RH  092%=      5-min Rain = 0
KST3 230638Z 02010KT 11/10 A3015 RMK A01 T01140101  RH  092%=      5-min Rain = 0
KST3 230639Z 02010KT 11/10 A3015 RMK A01 T01140101  RH  091%=      5-min Rain = 0
KST3 230640Z 03009KT 12/10 A3015 RMK A01 T01150101  RH  091%=      5-min Rain = 0
KST3 230641Z 03009KT 12/10 A3014 RMK A01 T01150102  RH  092%=      5-min Rain = 0
KST3 230642Z 03009KT 12/10 A3014 RMK A01 T01150101  RH  092%=      5-min Rain = 0
KST3 230643Z 02008KT 12/10 A3014 RMK A01 T01150102  RH  092%=      5-min Rain = 0
KST3 230644Z 02010KT 11/10 A3014 RMK A01 T01140102  RH  092%=      5-min Rain = 0
KST3 230645Z 02010KT 11/10 A3014 RMK A01 T01140102  RH  092%=      5-min Rain = 0
KST3 230646Z 02010KT 11/10 A3014 RMK A01 T01140102  RH  092%=      5-min Rain = 0
KST3 230647Z 03010KT 11/10 A3014 RMK A01 T01140101  RH  092%=      5-min Rain = 0
KST3 230648Z 03009KT 11/10 A3014 RMK A01 T01140101  RH  092%=      5-min Rain = 0
KST3 230649Z 03008KT 11/10 A3014 RMK A01 T01140102  RH  092%=      5-min Rain = 0
KST3 230650Z 03009KT 11/10 A3014 RMK A01 T01140102  RH  092%=      5-min Rain = 0
KST3 230651Z 03010KT 11/10 A3014 RMK A01 T01140102  RH  092%=      5-min Rain = 0
KST3 230652Z 03010KT 11/10 A3014 RMK A01 T01140101  RH  092%=      5-min Rain = 0
KST3 230653Z 03010KT 11/10 A3014 RMK A01 T01140101  RH  092%=      5-min Rain = 0
KST3 230654Z 02011KT 11/10 A3013 RMK A01 T01140101  RH  092%=      5-min Rain = 0
KST3 230655Z 03012KT 11/10 A3013 RMK A01 T01140101  RH  091%=      5-min Rain = 0
KST3 230656Z 02010KT 11/10 A3013 RMK A01 T01140101  RH  091%=      5-min Rain = 0
KST3 230657Z 03010KT 11/10 A3013 RMK A01 T01140102  RH  092%=      5-min Rain = 0
KST3 230658Z 02010KT 11/10 A3013 RMK A01 T01140102  RH  092%=      5-min Rain = 0
KST3 230659Z 02010KT 11/10 A3013 RMK A01 T01140103  RH  093%=      5-min Rain = 0
KST3 230700Z 02009KT 11/10 A3013 RMK A01 T01140103  RH  093%=      5-min Rain = 0
KST3 230701Z 02009KT 11/10 A3013 RMK A01 T01140103  RH  093%=      5-min Rain = 0
KST3 230702Z 02010KT 11/10 A3013 RMK A01 T01140103  RH  093%=      5-min Rain = 0
KST3 230703Z 02009KT 11/10 A3013 RMK A01 T01130103  RH  093%=      5-min Rain = 0
KST3 230704Z 02009KT 11/10 A3013 RMK A01 T01130103  RH  093%=      5-min Rain = 0
KST3 230705Z 02010KT 11/10 A3013 RMK A01 T01140103  RH  093%=      5-min Rain = 0
KST3 230706Z 02011KT 11/10 A3013 RMK A01 T01130103  RH  093%=      5-min Rain = 0
KST3 230707Z 02010KT 11/10 A3013 RMK A01 T01130103  RH  093%=      5-min Rain = 0
KST3 230708Z 02009KT 11/10 A3012 RMK A01 T01130103  RH  093%=      5-min Rain = 0
KST3 230709Z 02009KT 11/10 A3012 RMK A01 T01130103  RH  093%=      5-min Rain = 0
KST3 230710Z 02010KT 11/10 A3012 RMK A01 T01130104  RH  094%=      5-min Rain = 0
KST3 230711Z 01009KT 11/10 A3012 RMK A01 T01130104  RH  094%=      5-min Rain = 0
KST3 230712Z 01011KT 11/10 A3012 RMK A01 T01130104  RH  094%=      5-min Rain = 0
KST3 230713Z 01009KT 11/10 A3012 RMK A01 T01140104  RH  094%=      5-min Rain = 0
KST3 230714Z 02010KT 11/10 A3012 RMK A01 T01130103  RH  094%=      5-min Rain = 0
KST3 230715Z 02010KT 11/10 A3012 RMK A01 T01130103  RH  094%=      5-min Rain = 0
KST3 230716Z 02009KT 11/10 A3012 RMK A01 T01130103  RH  094%=      5-min Rain = 0
KST3 230717Z 02010KT 11/10 A3012 RMK A01 T01130103  RH  093%=      5-min Rain = 0
KST3 230718Z 02011KT 11/10 A3012 RMK A01 T01130103  RH  093%=      5-min Rain = 0
KST3 230719Z 02009KT 11/10 A3012 RMK A01 T01130103  RH  093%=      5-min Rain = 0
KST3 230720Z 02009KT 11/10 A3012 RMK A01 T01130103  RH  094%=      5-min Rain = 0
KST3 230721Z 02010KT 11/10 A3012 RMK A01 T01130104  RH  094%=      5-min Rain = 0
KST3 230722Z 02009KT 11/10 A3012 RMK A01 T01140104  RH  094%=      5-min Rain = 0
KST3 230723Z 01011KT 11/10 A3012 RMK A01 T01130104  RH  094%=      5-min Rain = 0
KST3 230724Z 02009KT 11/10 A3012 RMK A01 T01130104  RH  094%=      5-min Rain = 0
KST3 230725Z 02009KT 11/10 A3012 RMK A01 T01140104  RH  094%=      5-min Rain = 0
KST3 230726Z 01010KT 11/10 A3012 RMK A01 T01130104  RH  094%=      5-min Rain = 0
KST3 230727Z 01010KT 11/10 A3012 RMK A01 T01130104  RH  094%=      5-min Rain = 0
KST3 230728Z 02011KT 11/10 A3012 RMK A01 T01130104  RH  094%=      5-min Rain = 0
KST3 230729Z 01011KT 11/10 A3012 RMK A01 T01130103  RH  094%=      5-min Rain = 0
KST3 230730Z 02011KT 11/10 A3012 RMK A01 T01130104  RH  094%=      5-min Rain = 0
KST3 230731Z 02010KT 11/10 A3012 RMK A01 T01130103  RH  094%=      5-min Rain = 0
KST3 230732Z 02010KT 11/10 A3012 RMK A01 T01130104  RH  094%=      5-min Rain = 0
KST3 230733Z 02011KT 11/10 A3012 RMK A01 T01130104  RH  094%=      5-min Rain = 0
KST3 230734Z 02010KT 11/10 A3012 RMK A01 T01120104  RH  094%=      5-min Rain = 0
KST3 230735Z 02010KT 11/10 A3012 RMK A01 T01130104  RH  094%=      5-min Rain = 0
KST3 230736Z 01011KT 11/10 A3012 RMK A01 T01120104  RH  094%=      5-min Rain = 0
KST3 230737Z 01011KT 11/10 A3012 RMK A01 T01120104  RH  094%=      5-min Rain = 0
KST3 230738Z 01011KT 11/10 A3012 RMK A01 T01130104  RH  094%=      5-min Rain = 0
KST3 230739Z 01010KT 11/10 A3012 RMK A01 T01130104  RH  094%=      5-min Rain = 0
KST3 230740Z 01011KT 11/10 A3012 RMK A01 T01120104  RH  095%=      5-min Rain = 0
KST3 230741Z 02009KT 11/10 A3012 RMK A01 T01120104  RH  095%=      5-min Rain = 0
KST3 230742Z 02010KT 11/10 A3012 RMK A01 T01120104  RH  095%=      5-min Rain = 0
KST3 230743Z 02010KT 11/10 A3012 RMK A01 T01120104  RH  095%=      5-min Rain = 0
KST3 230744Z 02011KT 11/10 A3011 RMK A01 T01120104  RH  095%=      5-min Rain = 0
KST3 230745Z 02010KT 11/10 A3011 RMK A01 T01120104  RH  095%=      5-min Rain = 0
KST3 230746Z 02011KT 11/10 A3011 RMK A01 T01120104  RH  095%=      5-min Rain = 0
KST3 230747Z 02010KT 11/10 A3011 RMK A01 T01120104  RH  095%=      5-min Rain = 0
KST3 230748Z 02011KT 11/10 A3011 RMK A01 T01120104  RH  095%=      5-min Rain = 0
KST3 230749Z 02011KT 11/10 A3011 RMK A01 T01110104  RH  095%=      5-min Rain = 0
KST3 230750Z 02011KT 11/10 A3011 RMK A01 T01110104  RH  095%=      5-min Rain = 0
KST3 230751Z 02010KT 11/10 A3011 RMK A01 T01110104  RH  095%=      5-min Rain = 0
KST3 230752Z 02011KT 11/10 A3011 RMK A01 T01120104  RH  095%=      5-min Rain = 0
KST3 230753Z 02010KT 11/10 A3011 RMK A01 T01110104  RH  095%=      5-min Rain = 0
KST3 230754Z 02011KT 11/10 A3011 RMK A01 T01110104  RH  095%=      5-min Rain = 0
KST3 230755Z 02011KT 11/10 A3011 RMK A01 T01110104  RH  096%=      5-min Rain = 0
KST3 230756Z 02011KT 11/10 A3011 RMK A01 T01110104  RH  096%=      5-min Rain = 0
KST3 230757Z 02012KT 11/10 A3011 RMK A01 T01110104  RH  096%=      5-min Rain = 0
KST3 230758Z 02013KT 11/10 A3011 RMK A01 T01110104  RH  096%=      5-min Rain = 0
KST3 230759Z 02011KT 11/10 A3011 RMK A01 T01110104  RH  095%=      5-min Rain = 0
KST3 230800Z 02011KT 11/10 A3011 RMK A01 T01110104  RH  095%=      5-min Rain = 0
KST3 230801Z 02013KT 11/10 A3011 RMK A01 T01110104  RH  096%=      5-min Rain = 0
KST3 230802Z 02011KT 11/10 A3011 RMK A01 T01100103  RH  096%=      5-min Rain = 0
KST3 230803Z 02012KT 11/10 A3011 RMK A01 T01100103  RH  096%=      5-min Rain = 0
KST3 230804Z 01012KT 11/10 A3011 RMK A01 T01100103  RH  096%=      5-min Rain = 0
KST3 230805Z 02011KT 11/10 A3011 RMK A01 T01100103  RH  095%=      5-min Rain = 0
KST3 230806Z 02012KT 11/10 A3011 RMK A01 T01100103  RH  095%=      5-min Rain = 0
KST3 230807Z 02011KT 11/10 A3011 RMK A01 T01100103  RH  095%=      5-min Rain = 0
KST3 230808Z 01011KT 11/10 A301 RMK A01 T01100103  RH  096%=      5-min Rain = 0
KST3 230809Z 01011KT 11/10 A301 RMK A01 T01100103  RH  096%=      5-min Rain = 0
KST3 230810Z 01012KT 11/10 A301 RMK A01 T01100104  RH  096%=      5-min Rain = 0
KST3 230811Z 02011KT 11/10 A301 RMK A01 T01100103  RH  096%=      5-min Rain = 0
KST3 230812Z 01012KT 11/10 A301 RMK A01 T01100104  RH  096%=      5-min Rain = 0
KST3 230813Z 01011KT 11/10 A301 RMK A01 T01100104  RH  096%=      5-min Rain = 0
KST3 230814Z 02012KT 11/10 A301 RMK A01 T01100104  RH  096%=      5-min Rain = 0
KST3 230815Z 02012KT 11/10 A301 RMK A01 T01100104  RH  096%=      5-min Rain = 0
KST3 230816Z 02013KT 11/10 A301 RMK A01 T01100104  RH  096%=      5-min Rain = 0
KST3 230817Z 02012KT 11/10 A301 RMK A01 T01100103  RH  096%=      5-min Rain = 0
KST3 230818Z 02011KT 11/10 A301 RMK A01 T01100103  RH  095%=      5-min Rain = 0
KST3 230819Z 02012KT 11/10 A301 RMK A01 T01100103  RH  095%=      5-min Rain = 0
KST3 230820Z 02011KT 11/10 A301 RMK A01 T01100103  RH  095%=      5-min Rain = 0
KST3 230821Z 02012KT 11/10 A301 RMK A01 T01100102  RH  095%=      5-min Rain = 0
KST3 230822Z 02013KT 11/10 A301 RMK A01 T01100102  RH  095%=      5-min Rain = 0
KST3 230823Z 02012KT 11/10 A301 RMK A01 T01100102  RH  095%=      5-min Rain = 0
KST3 230824Z 02011KT 11/10 A301 RMK A01 T01100102  RH  095%=      5-min Rain = 0
KST3 230825Z 01012KT 11/10 A301 RMK A01 T01100102  RH  095%=      5-min Rain = 0
KST3 230826Z 02012KT 11/10 A301 RMK A01 T01100102  RH  095%=      5-min Rain = 0
KST3 230827Z 02012KT 11/10 A301 RMK A01 T01100102  RH  095%=      5-min Rain = 0
KST3 230828Z 02012KT 11/10 A301 RMK A01 T01100102  RH  094%=      5-min Rain = 0
KST3 230829Z 01012KT 11/10 A301 RMK A01 T01100101  RH  094%=      5-min Rain = 0
KST3 230830Z 02012KT 11/10 A301 RMK A01 T01100101  RH  094%=      5-min Rain = 0
KST3 230831Z 02013KT 11/10 A301 RMK A01 T01100101  RH  094%=      5-min Rain = 0
KST3 230832Z 02013KT 11/10 A301 RMK A01 T01100100  RH  094%=      5-min Rain = 0
KST3 230833Z 02013KT 11/10 A301 RMK A01 T01100100  RH  093%=      5-min Rain = 0
KST3 230834Z 02012KT 11/10 A301 RMK A01 T01100100  RH  093%=      5-min Rain = 0
KST3 230835Z 02012KT 11/10 A301 RMK A01 T01100099  RH  093%=      5-min Rain = 0
KST3 230836Z 02012KT 11/10 A301 RMK A01 T01100100  RH  093%=      5-min Rain = 0
KST3 230837Z 02012KT 11/10 A301 RMK A01 T01100100  RH  094%=      5-min Rain = 0
KST3 230838Z 02013KT 11/10 A301 RMK A01 T01100100  RH  094%=      5-min Rain = 0
KST3 230839Z 02012KT 11/10 A301 RMK A01 T01100100  RH  093%=      5-min Rain = 0
KST3 230840Z 02013KT 11/10 A3009 RMK A01 T01100100  RH  093%=      5-min Rain = 0
KST3 230841Z 02012KT 11/10 A3009 RMK A01 T01100100  RH  093%=      5-min Rain = 0
KST3 230842Z 02012KT 11/10 A3009 RMK A01 T01100100  RH  093%=      5-min Rain = 0
KST3 230843Z 02013KT 11/10 A3009 RMK A01 T01100100  RH  093%=      5-min Rain = 0
KST3 230844Z 02012KT 11/10 A3009 RMK A01 T01100100  RH  093%=      5-min Rain = 0
KST3 230845Z 02013KT 11/10 A3009 RMK A01 T01100100  RH  093%=      5-min Rain = 0
KST3 230846Z 02012KT 11/10 A3009 RMK A01 T01100099  RH  093%=      5-min Rain = 0
KST3 230847Z 02013KT 11/10 A3009 RMK A01 T01100099  RH  093%=      5-min Rain = 0
KST3 230848Z 02012KT 11/10 A3009 RMK A01 T01100099  RH  093%=      5-min Rain = 0
KST3 230849Z 02012KT 11/10 A3009 RMK A01 T01100099  RH  093%=      5-min Rain = 0
KST3 230850Z 02013KT 11/10 A301 RMK A01 T01100099  RH  093%=      5-min Rain = 0
KST3 230851Z 02013KT 11/10 A301 RMK A01 T01100099  RH  093%=      5-min Rain = 0
KST3 230852Z 02013KT 11/10 A301 RMK A01 T01090098  RH  093%=      5-min Rain = 0
KST3 230853Z 02011KT 11/10 A3009 RMK A01 T01090099  RH  093%=      5-min Rain = 0
KST3 230854Z 02012KT 11/10 A3009 RMK A01 T01090099  RH  093%=      5-min Rain = 0
KST3 230855Z 02012KT 11/10 A3009 RMK A01 T01090099  RH  093%=      5-min Rain = 0
KST3 230856Z 02012KT 11/10 A3009 RMK A01 T01090099  RH  093%=      5-min Rain = 0
KST3 230857Z 03011KT 11/10 A3009 RMK A01 T01090099  RH  093%=      5-min Rain = 0
KST3 230858Z 02012KT 11/10 A3009 RMK A01 T01090099  RH  094%=      5-min Rain = 0
KST3 230859Z 02012KT 11/10 A3009 RMK A01 T01090099  RH  094%=      5-min Rain = 0
KST3 230900Z 02013KT 11/10 A3009 RMK A01 T01090099  RH  093%=      5-min Rain = 0
KST3 230901Z 02013KT 11/10 A3009 RMK A01 T01090099  RH  093%=      5-min Rain = 0
KST3 230902Z 02011KT 11/10 A3009 RMK A01 T01090099  RH  094%=      5-min Rain = 0
KST3 230903Z 02012KT 11/10 A3009 RMK A01 T01090099  RH  094%=      5-min Rain = 0
KST3 230904Z 02012KT 11/10 A3009 RMK A01 T01090100  RH  094%=      5-min Rain = 0
KST3 230905Z 02012KT 11/10 A3009 RMK A01 T01090100  RH  094%=      5-min Rain = 0
KST3 230906Z 02013KT 11/10 A3009 RMK A01 T01090100  RH  094%=      5-min Rain = 0
KST3 230907Z 02012KT 11/10 A3009 RMK A01 T01090099  RH  094%=      5-min Rain = 0
KST3 230908Z 03009KT 11/10 A3009 RMK A01 T01090099  RH  094%=      5-min Rain = 0
KST3 230909Z 02012KT 11/10 A3009 RMK A01 T01090100  RH  094%=      5-min Rain = 0
KST3 230910Z 03011KT 11/10 A3009 RMK A01 T01090100  RH  094%=      5-min Rain = 0
KST3 230911Z 03010KT 11/10 A3009 RMK A01 T01090100  RH  094%=      5-min Rain = 0
KST3 230912Z 03011KT 11/10 A3009 RMK A01 T01090100  RH  094%=      5-min Rain = 0
KST3 230913Z 03012KT 11/10 A3009 RMK A01 T01090101  RH  094%=      5-min Rain = 0
KST3 230914Z 03012KT 11/10 A3009 RMK A01 T01090100  RH  094%=      5-min Rain = 0
KST3 230915Z 03013KT 11/10 A3009 RMK A01 T01090100  RH  094%=      5-min Rain = 0
KST3 230916Z 03013KT 11/10 A3009 RMK A01 T01090100  RH  094%=      5-min Rain = 0
KST3 230917Z 03013KT 11/10 A3009 RMK A01 T01090100  RH  094%=      5-min Rain = 0
KST3 230918Z 02012KT 11/10 A3009 RMK A01 T01090100  RH  094%=      5-min Rain = 0
KST3 230919Z 03013KT 11/10 A3009 RMK A01 T01090100  RH  094%=      5-min Rain = 0
KST3 230920Z 03015KT 11/10 A3009 RMK A01 T01090100  RH  094%=      5-min Rain = 0
KST3 230921Z 03015KT 11/10 A3009 RMK A01 T01090100  RH  094%=      5-min Rain = 0
KST3 230922Z 03013KT 11/10 A3009 RMK A01 T01090100  RH  094%=      5-min Rain = 0
KST3 230923Z 02015KT 11/10 A3009 RMK A01 T01090100  RH  094%=      5-min Rain = 0
KST3 230924Z 02014KT 11/10 A3009 RMK A01 T01090100  RH  094%=      5-min Rain = 0
KST3 230925Z 02013KT 11/10 A3009 RMK A01 T01090100  RH  094%=      5-min Rain = 0
KST3 230926Z 02013KT 11/10 A3009 RMK A01 T01090100  RH  094%=      5-min Rain = 0
KST3 230927Z 02013KT 11/10 A3009 RMK A01 T01090100  RH  094%=      5-min Rain = 0
KST3 230928Z 02013KT 11/10 A3009 RMK A01 T01090100  RH  094%=      5-min Rain = 0
KST3 230929Z 02013KT 11/10 A3009 RMK A01 T01090100  RH  094%=      5-min Rain = 0
KST3 230930Z 03014KT 11/10 A3009 RMK A01 T01090101  RH  094%=      5-min Rain = 0
KST3 230931Z 02012KT 11/10 A3009 RMK A01 T01090100  RH  094%=      5-min Rain = 0
KST3 230932Z 03013KT 11/10 A3009 RMK A01 T01090100  RH  094%=      5-min Rain = 0
KST3 230933Z 02011KT 11/10 A3009 RMK A01 T01090101  RH  094%=      5-min Rain = 0
KST3 230934Z 02012KT 11/10 A3009 RMK A01 T01090101  RH  095%=      5-min Rain = 0
KST3 230935Z 02012KT 11/10 A3009 RMK A01 T01090101  RH  095%=      5-min Rain = 0
KST3 230936Z 02011KT 11/10 A3009 RMK A01 T01090101  RH  095%=      5-min Rain = 0
KST3 230937Z 03011KT 11/10 A301 RMK A01 T01090101  RH  095%=      5-min Rain = 0
KST3 230938Z 03009KT 11/10 A301 RMK A01 T01090101  RH  095%=      5-min Rain = 0
KST3 230939Z 03012KT 11/10 A301 RMK A01 T01090101  RH  095%=      5-min Rain = 0
KST3 230940Z 03010KT 11/10 A301 RMK A01 T01090101  RH  095%=      5-min Rain = 0
KST3 230941Z 03012KT 11/10 A301 RMK A01 T01090102  RH  095%=      5-min Rain = 0
KST3 230942Z 03010KT 11/10 A301 RMK A01 T01080101  RH  095%=      5-min Rain = 0
KST3 230943Z 03010KT 11/10 A301 RMK A01 T01080101  RH  095%=      5-min Rain = 0
KST3 230944Z 02011KT 11/10 A301 RMK A01 T01080101  RH  095%=      5-min Rain = 0
KST3 230945Z 02011KT 11/10 A301 RMK A01 T01080101  RH  095%=      5-min Rain = 0
KST3 230946Z 03011KT 11/10 A301 RMK A01 T01080101  RH  095%=      5-min Rain = 0
KST3 230947Z 03013KT 11/10 A301 RMK A01 T01080101  RH  095%=      5-min Rain = 0
KST3 230948Z 03013KT 11/10 A301 RMK A01 T01080101  RH  095%=      5-min Rain = 0
KST3 230949Z 02012KT 11/10 A301 RMK A01 T01080100  RH  095%=      5-min Rain = 0
KST3 230950Z 02011KT 11/10 A301 RMK A01 T01080101  RH  095%=      5-min Rain = 0
KST3 230951Z 02013KT 11/10 A301 RMK A01 T01080101  RH  095%=      5-min Rain = 0
KST3 230952Z 02012KT 11/10 A301 RMK A01 T01080101  RH  095%=      5-min Rain = 0
KST3 230953Z 02012KT 11/10 A301 RMK A01 T01070100  RH  095%=      5-min Rain = 0
KST3 230954Z 02010KT 11/10 A301 RMK A01 T01070101  RH  096%=      5-min Rain = 0
KST3 230955Z 02011KT 11/10 A301 RMK A01 T01070101  RH  096%=      5-min Rain = 0
KST3 230956Z 02011KT 11/10 A301 RMK A01 T01070101  RH  096%=      5-min Rain = 0
KST3 230957Z 03012KT 11/10 A301 RMK A01 T01070101  RH  096%=      5-min Rain = 0
KST3 230958Z 03011KT 11/10 A301 RMK A01 T01070101  RH  096%=      5-min Rain = 0
KST3 230959Z 03011KT 11/10 A301 RMK A01 T01070101  RH  096%=      5-min Rain = 0
KST3 231000Z 03012KT 11/10 A301 RMK A01 T01070101  RH  096%=      5-min Rain = 0
KST3 231001Z 04011KT 11/10 A301 RMK A01 T01060100  RH  096%=      5-min Rain = 0
KST3 231002Z 03012KT 11/10 A301 RMK A01 T01060100  RH  096%=      5-min Rain = 0
KST3 231003Z 03011KT 11/10 A301 RMK A01 T01060100  RH  096%=      5-min Rain = 0
KST3 231004Z 03012KT 11/10 A301 RMK A01 T01070100  RH  096%=      5-min Rain = 0
KST3 231005Z 03011KT 11/10 A301 RMK A01 T01070100  RH  096%=      5-min Rain = 0
KST3 231006Z 03011KT 11/10 A301 RMK A01 T01060100  RH  096%=      5-min Rain = 0
KST3 231007Z 04010KT 11/10 A301 RMK A01 T01060100  RH  096%=      5-min Rain = 0
KST3 231008Z 04011KT 11/10 A301 RMK A01 T01070100  RH  096%=      5-min Rain = 0
KST3 231009Z 03009KT 11/10 A301 RMK A01 T01070100  RH  096%=      5-min Rain = 0
KST3 231010Z 03010KT 11/10 A301 RMK A01 T01070100  RH  096%=      5-min Rain = 0
KST3 231011Z 04010KT 11/10 A301 RMK A01 T01060100  RH  096%=      5-min Rain = 0
KST3 231012Z 04012KT 11/10 A301 RMK A01 T01060100  RH  096%=      5-min Rain = 0
KST3 231013Z 04014KT 11/10 A301 RMK A01 T01060100  RH  096%=      5-min Rain = 0
KST3 231014Z 04012KT 11/10 A301 RMK A01 T01060099  RH  095%=      5-min Rain = 0
KST3 231015Z 04011KT 11/10 A301 RMK A01 T01070099  RH  095%=      5-min Rain = 0
KST3 231016Z 04010KT 11/10 A301 RMK A01 T01060099  RH  095%=      5-min Rain = 0
KST3 231017Z 04013KT 11/10 A301 RMK A01 T01060099  RH  095%=      5-min Rain = 0
KST3 231018Z 04012KT 11/10 A301 RMK A01 T01070099  RH  095%=      5-min Rain = 0
KST3 231019Z 04012KT 11/10 A301 RMK A01 T01070099  RH  095%=      5-min Rain = 0
KST3 231020Z 04012KT 11/10 A3009 RMK A01 T01070099  RH  095%=      5-min Rain = 0
KST3 231021Z 03012KT 11/10 A3009 RMK A01 T01060099  RH  095%=      5-min Rain = 0
KST3 231022Z 04014KT 11/10 A301 RMK A01 T01060099  RH  095%=      5-min Rain = 0
KST3 231023Z 04013KT 11/10 A301 RMK A01 T01060098  RH  095%=      5-min Rain = 0
KST3 231024Z 04011KT 11/10 A301 RMK A01 T01060098  RH  095%=      5-min Rain = 0
KST3 231025Z 04011KT 11/10 A301 RMK A01 T01070099  RH  095%=      5-min Rain = 0
KST3 231026Z 04011KT 11/10 A301 RMK A01 T01070099  RH  095%=      5-min Rain = 0
KST3 231027Z 03013KT 11/10 A301 RMK A01 T01060099  RH  095%=      5-min Rain = 0
KST3 231028Z 04014KT 11/10 A301 RMK A01 T01060099  RH  095%=      5-min Rain = 0
KST3 231029Z 04012KT 11/10 A301 RMK A01 T01060098  RH  095%=      5-min Rain = 0
KST3 231030Z 04014KT 11/10 A301 RMK A01 T01060098  RH  095%=      5-min Rain = 0
KST3 231031Z 04013KT 11/10 A301 RMK A01 T01060097  RH  094%=      5-min Rain = 0
KST3 231032Z 04011KT 11/10 A3009 RMK A01 T01060097  RH  094%=      5-min Rain = 0
KST3 231033Z 03014KT 11/10 A3009 RMK A01 T01060097  RH  094%=      5-min Rain = 0
KST3 231034Z 04017KT 11/10 A301 RMK A01 T01060095  RH  093%=      5-min Rain = 0
KST3 231035Z 04013KT 11/10 A301 RMK A01 T01060095  RH  092%=      5-min Rain = 0
KST3 231036Z 03012KT 11/10 A301 RMK A01 T01060095  RH  093%=      5-min Rain = 0
KST3 231037Z 04012G17KT 11/10 A301 RMK A01 T01060095  RH  093%=      5-min Rain = 0
KST3 231038Z 04013KT 11/10 A301 RMK A01 T01060095  RH  093%=      5-min Rain = 0
KST3 231039Z 03011KT 11/10 A301 RMK A01 T01060096  RH  093%=      5-min Rain = 0
KST3 231040Z 03012KT 11/10 A301 RMK A01 T01060096  RH  093%=      5-min Rain = 0
KST3 231041Z 03011KT 11/10 A301 RMK A01 T01060096  RH  094%=      5-min Rain = 0
KST3 231042Z 03010KT 11/10 A301 RMK A01 T01060097  RH  094%=      5-min Rain = 0
KST3 231043Z 03011KT 11/10 A301 RMK A01 T01060097  RH  094%=      5-min Rain = 0
KST3 231044Z 03009KT 11/10 A301 RMK A01 T01050097  RH  095%=      5-min Rain = 0
KST3 231045Z 03008KT 11/10 A301 RMK A01 T01060098  RH  095%=      5-min Rain = 0
KST3 231046Z 03010KT 11/10 A301 RMK A01 T01050098  RH  095%=      5-min Rain = 0
KST3 231047Z 03008KT 11/10 A301 RMK A01 T01050098  RH  095%=      5-min Rain = 0
KST3 231048Z 03010KT 11/10 A301 RMK A01 T01050098  RH  095%=      5-min Rain = 0
KST3 231049Z 03010KT 11/10 A301 RMK A01 T01050098  RH  095%=      5-min Rain = 0
KST3 231050Z 02011KT 11/10 A301 RMK A01 T01050098  RH  096%=      5-min Rain = 0
KST3 231051Z 03013KT 11/10 A301 RMK A01 T01050098  RH  096%=      5-min Rain = 0
KST3 231052Z 03011KT 11/10 A301 RMK A01 T01050097  RH  095%=      5-min Rain = 0
KST3 231053Z 03011KT 11/10 A301 RMK A01 T01050097  RH  095%=      5-min Rain = 0
KST3 231054Z 04013KT 11/10 A301 RMK A01 T01050096  RH  095%=      5-min Rain = 0
KST3 231055Z 03012KT 11/10 A301 RMK A01 T01050096  RH  094%=      5-min Rain = 0
KST3 231056Z 03010KT 11/10 A301 RMK A01 T01050096  RH  095%=      5-min Rain = 0
KST3 231057Z 03010KT 11/10 A301 RMK A01 T01050097  RH  095%=      5-min Rain = 0
KST3 231058Z 04010KT 11/10 A301 RMK A01 T01050097  RH  095%=      5-min Rain = 0
KST3 231059Z 03011KT 10/10 A301 RMK A01 T01040097  RH  095%=      5-min Rain = 0
KST3 231100Z 03012KT 10/10 A301 RMK A01 T01040097  RH  095%=      5-min Rain = 0
KST3 231101Z 03013KT 10/10 A301 RMK A01 T01040097  RH  095%=      5-min Rain = 0
KST3 231102Z 03013KT 10/10 A3011 RMK A01 T01040097  RH  095%=      5-min Rain = 0
KST3 231103Z 03010KT 10/10 A3011 RMK A01 T01040096  RH  095%=      5-min Rain = 0
KST3 231104Z 02009KT 10/10 A3011 RMK A01 T01040097  RH  095%=      5-min Rain = 0
KST3 231105Z 03011KT 10/10 A3011 RMK A01 T01040098  RH  096%=      5-min Rain = 0
KST3 231106Z 03012G17KT 10/10 A3011 RMK A01 T01030097  RH  096%=      5-min Rain = 0
KST3 231107Z 03014KT 10/10 A3011 RMK A01 T01030097  RH  096%=      5-min Rain = 0
KST3 231108Z 03014KT 10/10 A3011 RMK A01 T01030097  RH  096%=      5-min Rain = 0
KST3 231109Z 03011KT 10/10 A3011 RMK A01 T01030096  RH  096%=      5-min Rain = 0
KST3 231110Z 02011KT 10/10 A3011 RMK A01 T01030097  RH  096%=      5-min Rain = 0
KST3 231111Z 03009KT 10/10 A3011 RMK A01 T01030097  RH  096%=      5-min Rain = 0
KST3 231112Z 03010KT 10/10 A3011 RMK A01 T01020097  RH  097%=      5-min Rain = 0
KST3 231113Z 03013KT 10/10 A3011 RMK A01 T01020097  RH  097%=      5-min Rain = 0
KST3 231114Z 03015G20KT 10/10 A3011 RMK A01 T01020097  RH  097%=      5-min Rain = 0.01
KST3 231115Z 03014KT 10/10 A3011 RMK A01 T01020096  RH  096%=      5-min Rain = 0
KST3 231116Z 03011KT 10/10 A3011 RMK A01 T01010096  RH  096%=      5-min Rain = 0
KST3 231117Z 03013KT 10/10 A3011 RMK A01 T01010096  RH  096%=      5-min Rain = 0
KST3 231118Z 03013KT 10/10 A3011 RMK A01 T01010096  RH  097%=      5-min Rain = 0
KST3 231119Z 03013KT 10/10 A3011 RMK A01 T01010096  RH  097%=      5-min Rain = 0
KST3 231120Z 03013KT 10/10 A3011 RMK A01 T01010096  RH  097%=      5-min Rain = 0
KST3 231121Z 03013KT 10/10 A3011 RMK A01 T01010096  RH  097%=      5-min Rain = 0
KST3 231122Z 03010KT 10/10 A3011 RMK A01 T01000096  RH  097%=      5-min Rain = 0.01
KST3 231123Z 03013KT 10/10 A3011 RMK A01 T01010096  RH  097%=      5-min Rain = 0
KST3 231124Z 02012KT 10/10 A3011 RMK A01 T01010096  RH  097%=      5-min Rain = 0
KST3 231125Z 02013KT 10/10 A3011 RMK A01 T01000096  RH  097%=      5-min Rain = 0
KST3 231126Z 02013KT 10/10 A3012 RMK A01 T01010097  RH  098%=      5-min Rain = 0
KST3 231127Z 02012KT 10/10 A3012 RMK A01 T01010097  RH  098%=      5-min Rain = 0
KST3 231128Z 02012KT 10/10 A3012 RMK A01 T01010098  RH  098%=      5-min Rain = 0
KST3 231129Z 02014KT 10/10 A3012 RMK A01 T01010098  RH  098%=      5-min Rain = 0
KST3 231130Z 02013KT 10/10 A3012 RMK A01 T01010098  RH  098%=      5-min Rain = 0
KST3 231131Z 02013KT 10/10 A3012 RMK A01 T01000098  RH  098%=      5-min Rain = 0
KST3 231132Z 02012KT 10/10 A3012 RMK A01 T01010099  RH  099%=      5-min Rain = 0
KST3 231133Z 02013KT 10/10 A3012 RMK A01 T01000099  RH  099%=      5-min Rain = 0.01
KST3 231134Z 02014KT 10/10 A3012 RMK A01 T01000098  RH  099%=      5-min Rain = 0
KST3 231135Z 02014KT 10/10 A3012 RMK A01 T01000098  RH  099%=      5-min Rain = 0
KST3 231136Z 02014KT 10/10 A3012 RMK A01 T01000098  RH  099%=      5-min Rain = 0
KST3 231137Z 03013KT 10/10 A3012 RMK A01 T00990098  RH  099%=      5-min Rain = 0
KST3 231138Z 03014KT 10/10 A3012 RMK A01 T00990098  RH  099%=      5-min Rain = 0
KST3 231139Z 03011KT 10/10 A3012 RMK A01 T00990098  RH  099%=      5-min Rain = 0.01
KST3 231140Z 03011KT 10/10 A3012 RMK A01 T00990098  RH  099%=      5-min Rain = 0
KST3 231141Z 03011KT 10/10 A3012 RMK A01 T00990098  RH  099%=      5-min Rain = 0
KST3 231142Z 03012KT 10/10 A3012 RMK A01 T00990098  RH  099%=      5-min Rain = 0
KST3 231143Z 03014KT 10/10 A3012 RMK A01 T00990098  RH  099%=      5-min Rain = 0.01
KST3 231144Z 03015KT 10/10 A3012 RMK A01 T00990098  RH  099%=      5-min Rain = 0
KST3 231145Z 03011KT 10/10 A3012 RMK A01 T00990097  RH  099%=      5-min Rain = 0
KST3 231146Z 03011KT 10/10 A3012 RMK A01 T00990098  RH  099%=      5-min Rain = 0
KST3 231147Z 03011KT 10/10 A3012 RMK A01 T00990098  RH  099%=      5-min Rain = 0.01
KST3 231148Z 03012KT 10/10 A3012 RMK A01 T00990098  RH  099%=      5-min Rain = 0
KST3 231149Z 02010KT 10/10 A3012 RMK A01 T00990098  RH  099%=      5-min Rain = 0
KST3 231150Z 02014G19KT 10/10 A3012 RMK A01 T00990098  RH  099%=      5-min Rain = 0
KST3 231151Z 03014KT 10/10 A3012 RMK A01 T00990098  RH  099%=      5-min Rain = 0
KST3 231152Z 03015KT 10/10 A3013 RMK A01 T00990098  RH  099%=      5-min Rain = 0
KST3 231153Z 03014G19KT 10/10 A3013 RMK A01 T00990098  RH  099%=      5-min Rain = 0
KST3 231154Z 03012KT 10/10 A3013 RMK A01 T00990097  RH  099%=      5-min Rain = 0
KST3 231155Z 03013KT 10/10 A3013 RMK A01 T00990097  RH  099%=      5-min Rain = 0
KST3 231156Z 03011KT 10/10 A3013 RMK A01 T00990097  RH  099%=      5-min Rain = 0
KST3 231157Z 04013KT 10/10 A3013 RMK A01 T00990097  RH  099%=      5-min Rain = 0
KST3 231158Z 03012KT 10/10 A3013 RMK A01 T00990097  RH  099%=      5-min Rain = 0
KST3 231159Z 03012G17KT 10/10 A3013 RMK A01 T00990098  RH  099%=      5-min Rain = 0
KST3 231200Z 03013KT 10/10 A3013 RMK A01 T00990097  RH  099%=      5-min Rain = 0.01
KST3 231201Z 03012KT 10/10 A3013 RMK A01 T00990098  RH  099%=      5-min Rain = 0
KST3 231202Z 03012KT 10/10 A3013 RMK A01 T00990098  RH  099%=      5-min Rain = 0
KST3 231203Z 03011KT 10/10 A3013 RMK A01 T00990098  RH  099%=      5-min Rain = 0
KST3 231204Z 03010KT 10/10 A3013 RMK A01 T00990098  RH  099%=      5-min Rain = 0
KST3 231205Z 03011KT 10/10 A3013 RMK A01 T00990098  RH  099%=      5-min Rain = 0
KST3 231206Z 03013KT 10/10 A3013 RMK A01 T00990098  RH  099%=      5-min Rain = 0
KST3 231207Z 03010KT 10/10 A3013 RMK A01 T00990098  RH  099%=      5-min Rain = 0
KST3 231208Z 03010KT 10/10 A3013 RMK A01 T00990098  RH  099%=      5-min Rain = 0
KST3 231209Z 03013KT 10/10 A3013 RMK A01 T00990097  RH  099%=      5-min Rain = 0
KST3 231210Z 03013KT 10/10 A3013 RMK A01 T00990098  RH  099%=      5-min Rain = 0
KST3 231211Z 03012KT 10/10 A3013 RMK A01 T00990098  RH  099%=      5-min Rain = 0
KST3 231212Z 03012KT 10/10 A3013 RMK A01 T00990098  RH  099%=      5-min Rain = 0
KST3 231213Z 03012KT 10/10 A3013 RMK A01 T00990098  RH  099%=      5-min Rain = 0.01
KST3 231214Z 03012KT 10/10 A3013 RMK A01 T00990098  RH  099%=      5-min Rain = 0
KST3 231215Z 03011KT 10/10 A3013 RMK A01 T00990098  RH  099%=      5-min Rain = 0
KST3 231216Z 03013KT 10/10 A3013 RMK A01 T00990098  RH  099%=      5-min Rain = 0
KST3 231217Z 03014KT 10/10 A3013 RMK A01 T00990098  RH  099%=      5-min Rain = 0
KST3 231218Z 03013KT 10/10 A3013 RMK A01 T00990098  RH  099%=      5-min Rain = 0
KST3 231219Z 03012KT 10/10 A3013 RMK A01 T00990098  RH  099%=      5-min Rain = 0
KST3 231220Z 03012KT 10/10 A3013 RMK A01 T00990097  RH  099%=      5-min Rain = 0
KST3 231221Z 04011KT 10/10 A3013 RMK A01 T00990098  RH  099%=      5-min Rain = 0
KST3 231222Z 03012KT 10/10 A3013 RMK A01 T00990097  RH  099%=      5-min Rain = 0
KST3 231223Z 03013KT 10/10 A3014 RMK A01 T00990097  RH  099%=      5-min Rain = 0
KST3 231224Z 04012KT 10/10 A3014 RMK A01 T00980097  RH  099%=      5-min Rain = 0
KST3 231225Z 04012KT 10/10 A3014 RMK A01 T00980096  RH  099%=      5-min Rain = 0
KST3 231226Z 04011KT 10/10 A3014 RMK A01 T00980096  RH  099%=      5-min Rain = 0
KST3 231227Z 04011KT 10/10 A3014 RMK A01 T00970096  RH  099%=      5-min Rain = 0
KST3 231228Z 04012KT 10/10 A3014 RMK A01 T00970096  RH  099%=      5-min Rain = 0
KST3 231229Z 03011KT 10/10 A3014 RMK A01 T00970095  RH  099%=      5-min Rain = 0
KST3 231230Z 04012KT 10/10 A3014 RMK A01 T00970095  RH  099%=      5-min Rain = 0
KST3 231231Z 04014KT 10/09 A3014 RMK A01 T00960094  RH  099%=      5-min Rain = 0.01
KST3 231232Z 04014KT 10/09 A3014 RMK A01 T00960094  RH  099%=      5-min Rain = 0
KST3 231233Z 04011KT 10/09 A3014 RMK A01 T00960093  RH  098%=      5-min Rain = 0
KST3 231234Z 04009KT 10/09 A3014 RMK A01 T00960094  RH  099%=      5-min Rain = 0
KST3 231235Z 04009KT 10/09 A3014 RMK A01 T00960094  RH  099%=      5-min Rain = 0
KST3 231236Z 04009KT 10/09 A3014 RMK A01 T00960094  RH  099%=      5-min Rain = 0
KST3 231237Z 04010KT 10/09 A3014 RMK A01 T00960094  RH  099%=      5-min Rain = 0
KST3 231238Z 04011KT 10/09 A3014 RMK A01 T00960094  RH  099%=      5-min Rain = 0
KST3 231239Z 04011KT 10/09 A3014 RMK A01 T00950094  RH  099%=      5-min Rain = 0
KST3 231240Z 04011KT 10/09 A3014 RMK A01 T00950094  RH  099%=      5-min Rain = 0
KST3 231241Z 05008KT 10/09 A3014 RMK A01 T00950094  RH  099%=      5-min Rain = 0
KST3 231242Z 05010KT 10/09 A3014 RMK A01 T00960094  RH  099%=      5-min Rain = 0.01
KST3 231243Z 04010KT 10/09 A3014 RMK A01 T00950094  RH  099%=      5-min Rain = 0
KST3 231244Z 04010KT 10/09 A3014 RMK A01 T00950094  RH  099%=      5-min Rain = 0
KST3 231245Z 04013KT 10/09 A3014 RMK A01 T00950094  RH  099%=      5-min Rain = 0
KST3 231246Z 04012KT 10/09 A3014 RMK A01 T00950093  RH  099%=      5-min Rain = 0
KST3 231247Z 04010KT 10/09 A3014 RMK A01 T00950093  RH  099%=      5-min Rain = 0.01
KST3 231248Z 04010KT 10/09 A3014 RMK A01 T00950094  RH  099%=      5-min Rain = 0
KST3 231249Z 04011KT 09/09 A3015 RMK A01 T00940093  RH  099%=      5-min Rain = 0
KST3 231250Z 04013KT 09/09 A3015 RMK A01 T00940093  RH  099%=      5-min Rain = 0
KST3 231251Z 04012KT 09/09 A3015 RMK A01 T00940093  RH  099%=      5-min Rain = 0
KST3 231252Z 05011KT 09/09 A3015 RMK A01 T00940093  RH  099%=      5-min Rain = 0
KST3 231253Z 05011KT 09/09 A3015 RMK A01 T00940093  RH  099%=      5-min Rain = 0
KST3 231254Z 04012KT 09/09 A3015 RMK A01 T00940093  RH  099%=      5-min Rain = 0
KST3 231255Z 05011KT 09/09 A3015 RMK A01 T00940092  RH  099%=      5-min Rain = 0
KST3 231256Z 04012KT 09/09 A3015 RMK A01 T00940092  RH  099%=      5-min Rain = 0
KST3 231257Z 05010KT 09/09 A3015 RMK A01 T00940093  RH  099%=      5-min Rain = 0
KST3 231258Z 05010KT 09/09 A3015 RMK A01 T00940093  RH  099%=      5-min Rain = 0
KST3 231259Z 04012KT 09/09 A3015 RMK A01 T00940092  RH  099%=      5-min Rain = 0
KST3 231300Z 05009KT 09/09 A3015 RMK A01 T00940093  RH  099%=      5-min Rain = 0
KST3 231301Z 05009KT 09/09 A3015 RMK A01 T00940093  RH  099%=      5-min Rain = 0.01
KST3 231302Z 05010KT 09/09 A3015 RMK A01 T00940093  RH  099%=      5-min Rain = 0
KST3 231303Z 04010KT 09/09 A3015 RMK A01 T00940093  RH  099%=      5-min Rain = 0
KST3 231304Z 05010KT 09/09 A3015 RMK A01 T00940093  RH  099%=      5-min Rain = 0
KST3 231305Z 05009KT 09/09 A3015 RMK A01 T00940093  RH  099%=      5-min Rain = 0
KST3 231306Z 05010KT 09/09 A3015 RMK A01 T00940093  RH  099%=      5-min Rain = 0
KST3 231307Z 05009KT 09/09 A3015 RMK A01 T00940093  RH  099%=      5-min Rain = 0
KST3 231308Z 05010KT 09/09 A3015 RMK A01 T00940094  RH  100%=      5-min Rain = 0
KST3 231309Z 05008KT 09/09 A3015 RMK A01 T00940093  RH  100%=      5-min Rain = 0
KST3 231310Z 05009KT 09/09 A3015 RMK A01 T00940094  RH  100%=      5-min Rain = 0
KST3 231311Z 05008KT 10/09 A3015 RMK A01 T00950094  RH  100%=      5-min Rain = 0
KST3 231312Z 05007KT 10/09 A3015 RMK A01 T00950094  RH  100%=      5-min Rain = 0
KST3 231313Z 05007KT 10/10 A3015 RMK A01 T00950095  RH  100%=      5-min Rain = 0
KST3 231314Z 05008KT 10/10 A3015 RMK A01 T00950095  RH  100%=      5-min Rain = 0
KST3 231315Z 05008KT 10/10 A3015 RMK A01 T00950095  RH  100%=      5-min Rain = 0
KST3 231316Z 05009KT 10/09 A3015 RMK A01 T00950094  RH  100%=      5-min Rain = 0
KST3 231317Z 05009KT 10/09 A3015 RMK A01 T00950094  RH  100%=      5-min Rain = 0.01
KST3 231318Z 05009KT 10/09 A3015 RMK A01 T00950094  RH  100%=      5-min Rain = 0
KST3 231319Z 04009KT 10/09 A3015 RMK A01 T00950094  RH  100%=      5-min Rain = 0
KST3 231320Z 05009KT 09/09 A3015 RMK A01 T00940094  RH  100%=      5-min Rain = 0
KST3 231321Z 04008KT 10/10 A3015 RMK A01 T00950095  RH  100%=      5-min Rain = 0
KST3 231322Z 04009KT 10/09 A3015 RMK A01 T00950094  RH  100%=      5-min Rain = 0
KST3 231323Z 04010KT 10/09 A3015 RMK A01 T00950094  RH  100%=      5-min Rain = 0
KST3 231324Z 04009KT 10/09 A3015 RMK A01 T00950094  RH  100%=      5-min Rain = 0
KST3 231325Z 04010KT 10/09 A3015 RMK A01 T00950094  RH  100%=      5-min Rain = 0
KST3 231326Z 04012KT 10/10 A3015 RMK A01 T00950095  RH  100%=      5-min Rain = 0
KST3 231327Z 04009KT 09/09 A3015 RMK A01 T00940094  RH  100%=      5-min Rain = 0
KST3 231328Z 04011KT 10/10 A3015 RMK A01 T00950095  RH  100%=      5-min Rain = 0.01
KST3 231329Z 04011KT 10/10 A3015 RMK A01 T00950095  RH  100%=      5-min Rain = 0
KST3 231330Z 04009KT 10/10 A3015 RMK A01 T00950095  RH  100%=      5-min Rain = 0
KST3 231331Z 04010KT 10/10 A3015 RMK A01 T00950095  RH  100%=      5-min Rain = 0
KST3 231332Z 04009KT 10/10 A3015 RMK A01 T00960096  RH  100%=      5-min Rain = 0
KST3 231333Z 03009KT 10/10 A3015 RMK A01 T00960095  RH  100%=      5-min Rain = 0
KST3 231334Z 04011KT 10/10 A3015 RMK A01 T00960096  RH  100%=      5-min Rain = 0
KST3 231335Z 03014KT 10/10 A3015 RMK A01 T00960095  RH  100%=      5-min Rain = 0
KST3 231336Z 03013KT 10/09 A3015 RMK A01 T00950094  RH  100%=      5-min Rain = 0
KST3 231337Z 03011KT 10/09 A3015 RMK A01 T00950094  RH  099%=      5-min Rain = 0
KST3 231338Z 03011KT 10/09 A3015 RMK A01 T00950094  RH  099%=      5-min Rain = 0
KST3 231339Z 03013KT 10/09 A3015 RMK A01 T00950094  RH  099%=      5-min Rain = 0
KST3 231340Z 03012KT 10/09 A3015 RMK A01 T00950094  RH  099%=      5-min Rain = 0
KST3 231341Z 03010KT 10/09 A3015 RMK A01 T00950093  RH  099%=      5-min Rain = 0
KST3 231342Z 03010KT 10/09 A3015 RMK A01 T00960094  RH  099%=      5-min Rain = 0.01
KST3 231343Z 03013KT 10/09 A3016 RMK A01 T00960094  RH  099%=      5-min Rain = 0
KST3 231344Z 03014KT 10/09 A3016 RMK A01 T00960094  RH  098%=      5-min Rain = 0
KST3 231345Z 03014KT 10/09 A3016 RMK A01 T00950093  RH  098%=      5-min Rain = 0
KST3 231346Z 03012KT 10/09 A3016 RMK A01 T00950093  RH  098%=      5-min Rain = 0
KST3 231347Z 03013KT 10/09 A3016 RMK A01 T00960093  RH  098%=      5-min Rain = 0
KST3 231348Z 03011KT 10/09 A3016 RMK A01 T00950093  RH  099%=      5-min Rain = 0
KST3 231349Z 04013KT 10/09 A3016 RMK A01 T00950093  RH  099%=      5-min Rain = 0
KST3 231350Z 04014KT 10/09 A3016 RMK A01 T00960094  RH  099%=      5-min Rain = 0
KST3 231351Z 04012KT 10/09 A3016 RMK A01 T00960094  RH  099%=      5-min Rain = 0
KST3 231352Z 04014KT 10/09 A3016 RMK A01 T00950093  RH  099%=      5-min Rain = 0
KST3 231353Z 03012KT 10/09 A3016 RMK A01 T00950094  RH  099%=      5-min Rain = 0
KST3 231354Z 05011KT 10/09 A3016 RMK A01 T00950093  RH  099%=      5-min Rain = 0
KST3 231355Z 05012KT 09/09 A3016 RMK A01 T00940092  RH  099%=      5-min Rain = 0
KST3 231356Z 05011KT 09/09 A3016 RMK A01 T00920089  RH  098%=      5-min Rain = 0
KST3 231357Z 05010KT 09/09 A3016 RMK A01 T00920089  RH  098%=      5-min Rain = 0
KST3 231358Z 05012KT 09/09 A3016 RMK A01 T00920090  RH  099%=      5-min Rain = 0
KST3 231359Z 04011KT 09/09 A3016 RMK A01 T00920090  RH  099%=      5-min Rain = 0
KST3 231400Z 04012KT 09/09 A3016 RMK A01 T00920090  RH  098%=      5-min Rain = 0
KST3 231401Z 04013KT 09/09 A3016 RMK A01 T00920089  RH  098%=      5-min Rain = 0
KST3 231402Z 04011KT 09/09 A3016 RMK A01 T00920089  RH  098%=      5-min Rain = 0
KST3 231403Z 03010KT 09/09 A3016 RMK A01 T00920089  RH  098%=      5-min Rain = 0
KST3 231404Z 03010KT 09/09 A3016 RMK A01 T00920089  RH  098%=      5-min Rain = 0
KST3 231405Z 04010KT 09/09 A3016 RMK A01 T00920089  RH  098%=      5-min Rain = 0
KST3 231406Z 03010KT 09/09 A3016 RMK A01 T00930089  RH  097%=      5-min Rain = 0
KST3 231407Z 04010KT 09/09 A3016 RMK A01 T00930088  RH  097%=      5-min Rain = 0.01
KST3 231408Z 03008KT 09/09 A3016 RMK A01 T00920088  RH  097%=      5-min Rain = 0
KST3 231409Z 03009KT 09/09 A3016 RMK A01 T00930089  RH  098%=      5-min Rain = 0
KST3 231410Z 03010KT 09/09 A3016 RMK A01 T00930090  RH  098%=      5-min Rain = 0
KST3 231411Z 03009KT 09/09 A3016 RMK A01 T00930089  RH  097%=      5-min Rain = 0
KST3 231412Z 03011KT 09/09 A3016 RMK A01 T00930089  RH  097%=      5-min Rain = 0
KST3 231413Z 03011KT 09/09 A3016 RMK A01 T00920088  RH  097%=      5-min Rain = 0
KST3 231414Z 03011KT 09/09 A3016 RMK A01 T00920087  RH  097%=      5-min Rain = 0
KST3 231415Z 04013KT 09/09 A3016 RMK A01 T00920087  RH  097%=      5-min Rain = 0
KST3 231416Z 03012KT 09/09 A3016 RMK A01 T00910086  RH  096%=      5-min Rain = 0
KST3 231417Z 04011KT 09/09 A3016 RMK A01 T00910086  RH  096%=      5-min Rain = 0
KST3 231418Z 04012KT 09/09 A3016 RMK A01 T00910085  RH  096%=      5-min Rain = 0
KST3 231419Z 04011KT 09/09 A3016 RMK A01 T00910085  RH  096%=      5-min Rain = 0
KST3 231420Z 04009KT 09/09 A3016 RMK A01 T00910085  RH  096%=      5-min Rain = 0
KST3 231421Z 03008KT 09/09 A3016 RMK A01 T00910086  RH  097%=      5-min Rain = 0
KST3 231422Z 04010KT 09/09 A3016 RMK A01 T00920088  RH  097%=      5-min Rain = 0
KST3 231423Z 04010KT 09/09 A3016 RMK A01 T00920088  RH  097%=      5-min Rain = 0
KST3 231424Z 03009KT 09/09 A3016 RMK A01 T00920088  RH  097%=      5-min Rain = 0
KST3 231425Z 03011KT 09/09 A3016 RMK A01 T00930089  RH  098%=      5-min Rain = 0
KST3 231426Z 03011KT 09/09 A3016 RMK A01 T00920089  RH  098%=      5-min Rain = 0
KST3 231427Z 04011KT 09/09 A3016 RMK A01 T00920088  RH  097%=      5-min Rain = 0
KST3 231428Z 04011KT 09/09 A3016 RMK A01 T00920088  RH  097%=      5-min Rain = 0
KST3 231429Z 04011KT 09/09 A3016 RMK A01 T00920088  RH  097%=      5-min Rain = 0
KST3 231430Z 04011KT 09/09 A3015 RMK A01 T00920088  RH  097%=      5-min Rain = 0
KST3 231431Z 03012KT 09/09 A3015 RMK A01 T00920088  RH  098%=      5-min Rain = 0
KST3 231432Z 04011KT 09/09 A3015 RMK A01 T00920088  RH  098%=      5-min Rain = 0
KST3 231433Z 04010KT 09/09 A3015 RMK A01 T00920088  RH  098%=      5-min Rain = 0
KST3 231434Z 04010KT 09/09 A3015 RMK A01 T00920089  RH  098%=      5-min Rain = 0
KST3 231435Z 04009KT 09/09 A3015 RMK A01 T00920089  RH  098%=      5-min Rain = 0
KST3 231436Z 04010KT 09/09 A3015 RMK A01 T00920090  RH  098%=      5-min Rain = 0
KST3 231437Z 04011KT 09/09 A3016 RMK A01 T00930090  RH  098%=      5-min Rain = 0
KST3 231438Z 04010KT 09/09 A3016 RMK A01 T00930090  RH  098%=      5-min Rain = 0
KST3 231439Z 03008KT 09/09 A3016 RMK A01 T00930090  RH  098%=      5-min Rain = 0
KST3 231440Z 04008KT 09/09 A3016 RMK A01 T00930090  RH  098%=      5-min Rain = 0
KST3 231441Z 03010KT 09/09 A3016 RMK A01 T00940091  RH  098%=      5-min Rain = 0
KST3 231442Z 04008KT 09/09 A3016 RMK A01 T00940091  RH  098%=      5-min Rain = 0
KST3 231443Z 04007KT 09/09 A3016 RMK A01 T00940091  RH  098%=      5-min Rain = 0
KST3 231444Z 04009KT 09/09 A3016 RMK A01 T00940092  RH  098%=      5-min Rain = 0
KST3 231445Z 04007KT 09/09 A3016 RMK A01 T00940092  RH  098%=      5-min Rain = 0
KST3 231446Z 04008G13KT 09/09 A3016 RMK A01 T00940092  RH  099%=      5-min Rain = 0
KST3 231447Z 04011KT 10/09 A3016 RMK A01 T00950092  RH  098%=      5-min Rain = 0
KST3 231448Z 04008KT 09/09 A3016 RMK A01 T00940092  RH  098%=      5-min Rain = 0
KST3 231449Z 04009KT 10/09 A3016 RMK A01 T00950092  RH  098%=      5-min Rain = 0
KST3 231450Z 03010KT 10/09 A3016 RMK A01 T00950093  RH  098%=      5-min Rain = 0
KST3 231451Z 04010KT 10/09 A3016 RMK A01 T00950092  RH  098%=      5-min Rain = 0
KST3 231452Z 04010KT 10/09 A3016 RMK A01 T00950093  RH  098%=      5-min Rain = 0
KST3 231453Z 04010KT 10/09 A3016 RMK A01 T00950092  RH  098%=      5-min Rain = 0
KST3 231454Z 03010KT 10/09 A3016 RMK A01 T00960092  RH  098%=      5-min Rain = 0
KST3 231455Z 03010KT 10/09 A3015 RMK A01 T00960093  RH  098%=      5-min Rain = 0
KST3 231456Z 04008KT 10/09 A3015 RMK A01 T00970094  RH  098%=      5-min Rain = 0
KST3 231457Z 04009KT 10/09 A3015 RMK A01 T00970094  RH  098%=      5-min Rain = 0
KST3 231458Z 04011KT 10/09 A3015 RMK A01 T00970094  RH  098%=      5-min Rain = 0
KST3 231459Z 03009KT 10/09 A3015 RMK A01 T00960093  RH  098%=      5-min Rain = 0
KST3 231500Z 03010KT 10/09 A3015 RMK A01 T00970093  RH  098%=      5-min Rain = 0
KST3 231501Z 04010KT 10/09 A3015 RMK A01 T00960093  RH  098%=      5-min Rain = 0
KST3 231502Z 04010KT 10/09 A3016 RMK A01 T00970093  RH  098%=      5-min Rain = 0
KST3 231503Z 04010KT 10/09 A3016 RMK A01 T00970093  RH  098%=      5-min Rain = 0
KST3 231504Z 04011KT 10/09 A3016 RMK A01 T00970094  RH  098%=      5-min Rain = 0
KST3 231505Z 04009KT 10/09 A3016 RMK A01 T00970093  RH  097%=      5-min Rain = 0
KST3 231506Z 04010KT 10/09 A3016 RMK A01 T00970093  RH  097%=      5-min Rain = 0
KST3 231507Z 04010KT 10/09 A3016 RMK A01 T00970093  RH  097%=      5-min Rain = 0
KST3 231508Z 04009KT 10/09 A3016 RMK A01 T00980093  RH  097%=      5-min Rain = 0
KST3 231509Z 04008KT 10/09 A3015 RMK A01 T00980094  RH  097%=      5-min Rain = 0
KST3 231510Z 03008KT 10/10 A3015 RMK A01 T00990095  RH  098%=      5-min Rain = 0
KST3 231511Z 04009KT 10/10 A3015 RMK A01 T00990096  RH  098%=      5-min Rain = 0
KST3 231512Z 03009KT 10/10 A3015 RMK A01 T00990095  RH  097%=      5-min Rain = 0
KST3 231513Z 03008KT 10/10 A3015 RMK A01 T00990096  RH  098%=      5-min Rain = 0
KST3 231514Z 04008KT 10/10 A3015 RMK A01 T01000096  RH  098%=      5-min Rain = 0
KST3 231515Z 04009KT 10/10 A3015 RMK A01 T01000097  RH  098%=      5-min Rain = 0
KST3 231516Z 04009KT 10/10 A3015 RMK A01 T01010098  RH  098%=      5-min Rain = 0
KST3 231517Z 03010KT 10/10 A3015 RMK A01 T01010097  RH  097%=      5-min Rain = 0
KST3 231518Z 04010KT 10/10 A3015 RMK A01 T01000095  RH  097%=      5-min Rain = 0
KST3 231519Z 05008KT 10/10 A3015 RMK A01 T01000095  RH  097%=      5-min Rain = 0
KST3 231520Z 03010KT 10/10 A3015 RMK A01 T01010098  RH  098%=      5-min Rain = 0
KST3 231521Z 04008KT 10/10 A3015 RMK A01 T01010098  RH  097%=      5-min Rain = 0
KST3 231522Z 05009KT 10/10 A3015 RMK A01 T01020098  RH  097%=      5-min Rain = 0
KST3 231523Z 05009KT 10/10 A3016 RMK A01 T01010097  RH  097%=      5-min Rain = 0
KST3 231524Z 05010KT 10/10 A3016 RMK A01 T01010096  RH  097%=      5-min Rain = 0
KST3 231525Z 05009KT 10/10 A3016 RMK A01 T01010096  RH  096%=      5-min Rain = 0
KST3 231526Z 05009KT 10/10 A3016 RMK A01 T01010095  RH  096%=      5-min Rain = 0
KST3 231527Z 04009KT 10/10 A3016 RMK A01 T01010096  RH  096%=      5-min Rain = 0
KST3 231528Z 04010KT 10/10 A3016 RMK A01 T01020096  RH  096%=      5-min Rain = 0
KST3 231529Z 04010KT 10/10 A3015 RMK A01 T01020095  RH  096%=      5-min Rain = 0
KST3 231530Z 04010KT 10/10 A3015 RMK A01 T01020095  RH  095%=      5-min Rain = 0
KST3 231531Z 03012KT 10/10 A3015 RMK A01 T01030096  RH  095%=      5-min Rain = 0
KST3 231532Z 04013KT 10/09 A3015 RMK A01 T01040093  RH  093%=      5-min Rain = 0
KST3 231533Z 03010KT 10/09 A3015 RMK A01 T01040090  RH  091%=      5-min Rain = 0
KST3 231534Z 04013KT 11/09 A3015 RMK A01 T01050093  RH  092%=      5-min Rain = 0
KST3 231535Z 04013KT 11/09 A3015 RMK A01 T01050092  RH  091%=      5-min Rain = 0
KST3 231536Z 03012KT 11/09 A3015 RMK A01 T01060092  RH  091%=      5-min Rain = 0
KST3 231537Z 03013KT 11/09 A3015 RMK A01 T01060091  RH  091%=      5-min Rain = 0
KST3 231538Z 02013KT 11/09 A3015 RMK A01 T01070090  RH  090%=      5-min Rain = 0
KST3 231539Z 03012KT 11/09 A3015 RMK A01 T01070089  RH  089%=      5-min Rain = 0
KST3 231540Z 03014KT 11/09 A3015 RMK A01 T01080090  RH  089%=      5-min Rain = 0
KST3 231541Z 03015KT 11/09 A3015 RMK A01 T01090090  RH  088%=      5-min Rain = 0
KST3 231542Z 03013KT 11/08 A3015 RMK A01 T01090084  RH  085%=      5-min Rain = 0
KST3 231543Z 03014KT 11/09 A3015 RMK A01 T01100089  RH  087%=      5-min Rain = 0
KST3 231544Z 03013KT 11/09 A3014 RMK A01 T01100086  RH  085%=      5-min Rain = 0
KST3 231545Z 03016KT 11/09 A3014 RMK A01 T01100087  RH  086%=      5-min Rain = 0
KST3 231546Z 03014G19KT 11/09 A3014 RMK A01 T01100086  RH  085%=      5-min Rain = 0
KST3 231547Z 03017KT 11/09 A3014 RMK A01 T01110088  RH  086%=      5-min Rain = 0
KST3 231548Z 03016G21KT 11/09 A3014 RMK A01 T01120085  RH  083%=      5-min Rain = 0
KST3 231549Z 03015G20KT 11/09 A3015 RMK A01 T01110085  RH  084%=      5-min Rain = 0
KST3 231550Z 03014KT 11/09 A3014 RMK A01 T01120088  RH  085%=      5-min Rain = 0
KST3 231551Z 03015KT 11/09 A3014 RMK A01 T01120087  RH  085%=      5-min Rain = 0
KST3 231552Z 03016KT 11/09 A3014 RMK A01 T01120086  RH  084%=      5-min Rain = 0
KST3 231553Z 02016KT 11/09 A3014 RMK A01 T01120087  RH  084%=      5-min Rain = 0
KST3 231554Z 03014KT 11/09 A3014 RMK A01 T01120089  RH  085%=      5-min Rain = 0
KST3 231555Z 03015KT 11/09 A3014 RMK A01 T01140092  RH  087%=      5-min Rain = 0
KST3 231556Z 03016G21KT 12/09 A3014 RMK A01 T01150092  RH  086%=      5-min Rain = 0
KST3 231557Z 03017KT 12/09 A3014 RMK A01 T01150086  RH  083%=      5-min Rain = 0
KST3 231558Z 04017KT 12/09 A3014 RMK A01 T01150086  RH  082%=      5-min Rain = 0
KST3 231559Z 04017KT 12/08 A3014 RMK A01 T01150083  RH  081%=      5-min Rain = 0
KST3 231600Z 04016KT 11/08 A3014 RMK A01 T01140084  RH  082%=      5-min Rain = 0
KST3 231601Z 03017KT 12/09 A3014 RMK A01 T01150086  RH  082%=      5-min Rain = 0
KST3 231602Z 03017KT 12/09 A3014 RMK A01 T01160085  RH  081%=      5-min Rain = 0
KST3 231603Z 03017KT 12/09 A3014 RMK A01 T01160086  RH  082%=      5-min Rain = 0
KST3 231604Z 03016KT 12/09 A3013 RMK A01 T01160089  RH  084%=      5-min Rain = 0
KST3 231605Z 03019KT 12/09 A3013 RMK A01 T01180089  RH  082%=      5-min Rain = 0
KST3 231606Z 03019G24KT 12/09 A3014 RMK A01 T01180085  RH  080%=      5-min Rain = 0
KST3 231607Z 03019KT 12/08 A3013 RMK A01 T01170079  RH  078%=      5-min Rain = 0
KST3 231608Z 02019KT 12/08 A3013 RMK A01 T01160079  RH  078%=      5-min Rain = 0
KST3 231609Z 03018G23KT 12/08 A3013 RMK A01 T01150080  RH  079%=      5-min Rain = 0
KST3 231610Z 02020KT 12/08 A3013 RMK A01 T01160081  RH  079%=      5-min Rain = 0
KST3 231611Z 03017KT 12/08 A3013 RMK A01 T01160080  RH  079%=      5-min Rain = 0
KST3 231612Z 03017G23KT 12/08 A3014 RMK A01 T01150079  RH  078%=      5-min Rain = 0
KST3 231613Z 04020KT 12/08 A3014 RMK A01 T01160078  RH  077%=      5-min Rain = 0
KST3 231614Z 03020KT 12/07 A3014 RMK A01 T01150073  RH  075%=      5-min Rain = 0
KST3 231615Z 04018KT 11/07 A3014 RMK A01 T01140073  RH  076%=      5-min Rain = 0
KST3 231616Z 04016KT 11/07 A3014 RMK A01 T01140073  RH  076%=      5-min Rain = 0
KST3 231617Z 04015KT 11/08 A3014 RMK A01 T01140077  RH  078%=      5-min Rain = 0
KST3 231618Z 04019KT 12/08 A3014 RMK A01 T01150077  RH  078%=      5-min Rain = 0
KST3 231619Z 04018KT 12/07 A3014 RMK A01 T01150074  RH  076%=      5-min Rain = 0
KST3 231620Z 04016KT 11/07 A3014 RMK A01 T01140073  RH  076%=      5-min Rain = 0
KST3 231621Z 04015KT 12/08 A3014 RMK A01 T01150077  RH  077%=      5-min Rain = 0
KST3 231622Z 03016KT 12/08 A3014 RMK A01 T01170078  RH  077%=      5-min Rain = 0
KST3 231623Z 03014KT 12/08 A3014 RMK A01 T01170076  RH  076%=      5-min Rain = 0
KST3 231624Z 03014KT 12/08 A3014 RMK A01 T01180077  RH  076%=      5-min Rain = 0
KST3 231625Z 03014KT 12/08 A3014 RMK A01 T01190081  RH  078%=      5-min Rain = 0
KST3 231626Z 03014KT 12/08 A3014 RMK A01 T01200076  RH  074%=      5-min Rain = 0
KST3 231627Z 03015KT 12/08 A3015 RMK A01 T01180076  RH  075%=      5-min Rain = 0
KST3 231628Z 03015KT 12/08 A3015 RMK A01 T01160075  RH  076%=      5-min Rain = 0
KST3 231629Z 03012KT 12/07 A3015 RMK A01 T01150074  RH  076%=      5-min Rain = 0
KST3 231630Z 03016KT 11/08 A3015 RMK A01 T01140077  RH  078%=      5-min Rain = 0
KST3 231631Z 03015KT 11/07 A3015 RMK A01 T01140072  RH  075%=      5-min Rain = 0
KST3 231632Z 03013KT 11/07 A3015 RMK A01 T01130070  RH  074%=      5-min Rain = 0
KST3 231633Z 03015KT 11/07 A3015 RMK A01 T01130070  RH  075%=      5-min Rain = 0
KST3 231634Z 03014KT 11/07 A3015 RMK A01 T01130071  RH  075%=      5-min Rain = 0
KST3 231635Z 04013KT 11/07 A3016 RMK A01 T01120073  RH  077%=      5-min Rain = 0
KST3 231636Z 05010KT 11/08 A3016 RMK A01 T01120077  RH  079%=      5-min Rain = 0
KST3 231637Z 06009KT 11/08 A3016 RMK A01 T01110082  RH  082%=      5-min Rain = 0
KST3 231638Z 07011KT 11/08 A3016 RMK A01 T01120082  RH  082%=      5-min Rain = 0
KST3 231639Z 06011KT 11/08 A3016 RMK A01 T01110082  RH  082%=      5-min Rain = 0
KST3 231640Z 06010KT 11/09 A3016 RMK A01 T01110085  RH  084%=      5-min Rain = 0
KST3 231641Z 05009KT 11/09 A3016 RMK A01 T01120087  RH  085%=      5-min Rain = 0
KST3 231642Z 06011KT 11/08 A3016 RMK A01 T01120084  RH  083%=      5-min Rain = 0
KST3 231643Z 05009KT 11/08 A3015 RMK A01 T01110082  RH  082%=      5-min Rain = 0
KST3 231644Z 06008KT 11/08 A3015 RMK A01 T01110083  RH  083%=      5-min Rain = 0
KST3 231645Z 05013KT 11/08 A3016 RMK A01 T01100083  RH  083%=      5-min Rain = 0
KST3 231646Z 05012KT 11/08 A3016 RMK A01 T01100080  RH  082%=      5-min Rain = 0
KST3 231647Z 06011KT 11/08 A3015 RMK A01 T01100078  RH  081%=      5-min Rain = 0
KST3 231648Z 06009KT 11/08 A3016 RMK A01 T01100078  RH  081%=      5-min Rain = 0
KST3 231649Z 06009KT 11/08 A3016 RMK A01 T01100082  RH  083%=      5-min Rain = 0
KST3 231650Z 05008KT 11/08 A3016 RMK A01 T01100082  RH  083%=      5-min Rain = 0
KST3 231651Z 04009KT 11/08 A3016 RMK A01 T01100081  RH  082%=      5-min Rain = 0
KST3 231652Z 04012KT 11/08 A3016 RMK A01 T01110077  RH  080%=      5-min Rain = 0
KST3 231653Z 04011KT 11/07 A3016 RMK A01 T01100074  RH  078%=      5-min Rain = 0
KST3 231654Z 04011KT 11/07 A3016 RMK A01 T01090074  RH  079%=      5-min Rain = 0
KST3 231655Z 05011KT 11/08 A3016 RMK A01 T01090076  RH  080%=      5-min Rain = 0
KST3 231656Z 05012KT 11/08 A3016 RMK A01 T01080077  RH  081%=      5-min Rain = 0
KST3 231657Z 04010KT 11/08 A3016 RMK A01 T01080075  RH  080%=      5-min Rain = 0
KST3 231658Z 04011KT 11/08 A3016 RMK A01 T01080076  RH  080%=      5-min Rain = 0
KST3 231659Z 04012KT 11/08 A3016 RMK A01 T01080076  RH  080%=      5-min Rain = 0
KST3 231700Z 05010KT 11/08 A3015 RMK A01 T01090076  RH  080%=      5-min Rain = 0
KST3 231701Z 03011KT 11/08 A3015 RMK A01 T01090078  RH  081%=      5-min Rain = 0
KST3 231702Z 03012KT 11/08 A3015 RMK A01 T01100076  RH  080%=      5-min Rain = 0
KST3 231703Z 03010KT 11/08 A3016 RMK A01 T01100076  RH  080%=      5-min Rain = 0
KST3 231704Z 04011KT 11/08 A3016 RMK A01 T01100077  RH  080%=      5-min Rain = 0
KST3 231705Z 03011KT 11/08 A3016 RMK A01 T01100076  RH  080%=      5-min Rain = 0
KST3 231706Z 04009KT 11/08 A3016 RMK A01 T01100075  RH  079%=      5-min Rain = 0
KST3 231707Z 04011KT 11/08 A3016 RMK A01 T01100075  RH  079%=      5-min Rain = 0
KST3 231708Z 03011KT 11/07 A3016 RMK A01 T01100072  RH  077%=      5-min Rain = 0
KST3 231709Z 03010KT 11/07 A3016 RMK A01 T01100073  RH  078%=      5-min Rain = 0
KST3 231710Z 03010KT 11/07 A3016 RMK A01 T01110074  RH  078%=      5-min Rain = 0
KST3 231711Z 04009KT 11/07 A3016 RMK A01 T01110074  RH  078%=      5-min Rain = 0
KST3 231712Z 03011KT 11/07 A3016 RMK A01 T01120074  RH  078%=      5-min Rain = 0
KST3 231713Z 03010KT 11/07 A3016 RMK A01 T01120073  RH  077%=      5-min Rain = 0
KST3 231714Z 04010KT 11/07 A3016 RMK A01 T01120072  RH  076%=      5-min Rain = 0
KST3 231715Z 03011KT 11/07 A3016 RMK A01 T01120072  RH  076%=      5-min Rain = 0
KST3 231716Z 04011KT 11/07 A3016 RMK A01 T01130071  RH  075%=      5-min Rain = 0
KST3 231717Z 03010KT 11/07 A3016 RMK A01 T01130069  RH  075%=      5-min Rain = 0
KST3 231718Z 03011KT 11/07 A3016 RMK A01 T01120072  RH  076%=      5-min Rain = 0
KST3 231719Z 02013KT 11/07 A3016 RMK A01 T01130072  RH  076%=      5-min Rain = 0
KST3 231720Z 02012KT 11/07 A3016 RMK A01 T01130069  RH  075%=      5-min Rain = 0
KST3 231721Z 03009KT 11/07 A3016 RMK A01 T01120071  RH  076%=      5-min Rain = 0
KST3 231722Z 03009KT 11/07 A3016 RMK A01 T01130073  RH  076%=      5-min Rain = 0
KST3 231723Z 02012KT 12/07 A3016 RMK A01 T01150070  RH  074%=      5-min Rain = 0
KST3 231724Z 01013KT 11/07 A3016 RMK A01 T01140066  RH  072%=      5-min Rain = 0
KST3 231725Z 01012KT 11/06 A3016 RMK A01 T01130063  RH  071%=      5-min Rain = 0
KST3 231726Z 02010KT 11/07 A3016 RMK A01 T01130065  RH  072%=      5-min Rain = 0
KST3 231727Z 02012KT 11/07 A3016 RMK A01 T01130069  RH  074%=      5-min Rain = 0
KST3 231728Z 02013KT 11/07 A3016 RMK A01 T01140068  RH  073%=      5-min Rain = 0
KST3 231729Z 03012KT 11/07 A3016 RMK A01 T01140068  RH  074%=      5-min Rain = 0
KST3 231730Z 02011KT 11/07 A3016 RMK A01 T01140069  RH  074%=      5-min Rain = 0
KST3 231731Z 02010KT 11/07 A3016 RMK A01 T01140068  RH  073%=      5-min Rain = 0
KST3 231732Z 03010KT 11/07 A3015 RMK A01 T01140067  RH  073%=      5-min Rain = 0
KST3 231733Z 03009KT 11/07 A3015 RMK A01 T01140067  RH  073%=      5-min Rain = 0
KST3 231734Z 02010KT 11/07 A3015 RMK A01 T01140069  RH  074%=      5-min Rain = 0
KST3 231735Z 01013KT 12/07 A3015 RMK A01 T01150072  RH  075%=      5-min Rain = 0
KST3 231736Z 02011KT 11/07 A3015 RMK A01 T01140070  RH  074%=      5-min Rain = 0
KST3 231737Z 02011KT 11/07 A3015 RMK A01 T01140073  RH  075%=      5-min Rain = 0
KST3 231738Z 02011KT 11/07 A3015 RMK A01 T01140072  RH  075%=      5-min Rain = 0
KST3 231739Z 01011KT 11/07 A3016 RMK A01 T01140070  RH  074%=      5-min Rain = 0
KST3 231740Z 02009KT 11/07 A3015 RMK A01 T01130069  RH  074%=      5-min Rain = 0
KST3 231741Z 01008KT 11/07 A3015 RMK A01 T01130070  RH  075%=      5-min Rain = 0
KST3 231742Z 02009KT 11/07 A3015 RMK A01 T01140072  RH  076%=      5-min Rain = 0
KST3 231743Z 01012KT 11/07 A3015 RMK A01 T01140072  RH  076%=      5-min Rain = 0
KST3 231744Z 01010KT 11/07 A3015 RMK A01 T01140070  RH  075%=      5-min Rain = 0
KST3 231745Z 01010KT 11/07 A3015 RMK A01 T01130072  RH  076%=      5-min Rain = 0
KST3 231746Z 02013KT 11/07 A3015 RMK A01 T01130074  RH  077%=      5-min Rain = 0
KST3 231747Z 01012KT 11/07 A3015 RMK A01 T01130072  RH  076%=      5-min Rain = 0
KST3 231748Z 02011KT 11/07 A3015 RMK A01 T01120070  RH  075%=      5-min Rain = 0
KST3 231749Z 02012KT 11/07 A3015 RMK A01 T01120071  RH  075%=      5-min Rain = 0
KST3 231750Z 03009KT 11/07 A3015 RMK A01 T01120070  RH  075%=      5-min Rain = 0
KST3 231751Z 03008KT 11/08 A3015 RMK A01 T01120075  RH  077%=      5-min Rain = 0
KST3 231752Z 03009KT 11/08 A3015 RMK A01 T01140076  RH  077%=      5-min Rain = 0
KST3 231753Z 01009KT 12/08 A3015 RMK A01 T01150075  RH  076%=      5-min Rain = 0
KST3 231754Z 02010KT 12/07 A3015 RMK A01 T01150071  RH  074%=      5-min Rain = 0
KST3 231755Z 02009KT 12/07 A3015 RMK A01 T01150071  RH  074%=      5-min Rain = 0
KST3 231756Z 01012KT 12/07 A3014 RMK A01 T01150070  RH  074%=      5-min Rain = 0
KST3 231757Z 02011KT 12/07 A3014 RMK A01 T01160071  RH  074%=      5-min Rain = 0
KST3 231758Z 02011KT 12/07 A3014 RMK A01 T01170071  RH  074%=      5-min Rain = 0
KST3 231759Z 02013KT 12/07 A3014 RMK A01 T01170070  RH  073%=      5-min Rain = 0
KST3 231800Z 02011KT 12/07 A3014 RMK A01 T01160068  RH  072%=      5-min Rain = 0
KST3 231801Z 02009KT 12/07 A3014 RMK A01 T01160072  RH  074%=      5-min Rain = 0
KST3 231802Z 01009KT 12/07 A3014 RMK A01 T01180072  RH  073%=      5-min Rain = 0
KST3 231803Z 01013KT 12/07 A3014 RMK A01 T01190070  RH  072%=      5-min Rain = 0
KST3 231804Z 01011KT 12/07 A3014 RMK A01 T01190070  RH  072%=      5-min Rain = 0
KST3 231805Z 01012KT 12/07 A3014 RMK A01 T01190069  RH  071%=      5-min Rain = 0
KST3 231806Z 01011KT 12/07 A3014 RMK A01 T01180067  RH  071%=      5-min Rain = 0
KST3 231807Z 01011KT 12/07 A3014 RMK A01 T01170069  RH  072%=      5-min Rain = 0
KST3 231808Z 01012KT 12/07 A3014 RMK A01 T01180071  RH  073%=      5-min Rain = 0
KST3 231809Z 01013KT 12/07 A3014 RMK A01 T01180070  RH  073%=      5-min Rain = 0
KST3 231810Z 01013KT 12/07 A3014 RMK A01 T01180072  RH  073%=      5-min Rain = 0
KST3 231811Z 01012KT 12/07 A3014 RMK A01 T01180069  RH  072%=      5-min Rain = 0
KST3 231812Z 02012KT 12/07 A3014 RMK A01 T01180070  RH  073%=      5-min Rain = 0
KST3 231813Z 02010KT 12/07 A3014 RMK A01 T01180070  RH  072%=      5-min Rain = 0
KST3 231814Z 02010KT 12/07 A3014 RMK A01 T01180071  RH  073%=      5-min Rain = 0
KST3 231815Z 02010KT 12/07 A3014 RMK A01 T01170072  RH  074%=      5-min Rain = 0
KST3 231816Z 01013KT 12/07 A3014 RMK A01 T01180073  RH  074%=      5-min Rain = 0
KST3 231817Z 01011KT 12/07 A3014 RMK A01 T01180071  RH  073%=      5-min Rain = 0
KST3 231818Z 02010KT 12/08 A3014 RMK A01 T01190076  RH  075%=      5-min Rain = 0
KST3 231819Z 02011KT 12/07 A3013 RMK A01 T01210073  RH  072%=      5-min Rain = 0
KST3 231820Z 02012KT 12/07 A3013 RMK A01 T01210073  RH  073%=      5-min Rain = 0
KST3 231821Z 01011KT 12/07 A3013 RMK A01 T01200072  RH  072%=      5-min Rain = 0
KST3 231822Z 03009KT 12/07 A3013 RMK A01 T01200071  RH  072%=      5-min Rain = 0
KST3 231823Z 02011KT 12/07 A3013 RMK A01 T01210071  RH  072%=      5-min Rain = 0
KST3 231824Z 01013KT 12/07 A3013 RMK A01 T01220073  RH  072%=      5-min Rain = 0
KST3 231825Z 00011KT 12/07 A3013 RMK A01 T01230074  RH  072%=      5-min Rain = 0
KST3 231826Z 01011KT 12/07 A3013 RMK A01 T01240074  RH  072%=      5-min Rain = 0
KST3 231827Z 01011KT 13/07 A3013 RMK A01 T01250074  RH  071%=      5-min Rain = 0
KST3 231828Z 01009KT 12/07 A3013 RMK A01 T01240073  RH  071%=      5-min Rain = 0
KST3 231829Z 01008KT 12/08 A3013 RMK A01 T01240076  RH  072%=      5-min Rain = 0
KST3 231830Z 01009KT 13/08 A3013 RMK A01 T01270076  RH  071%=      5-min Rain = 0
KST3 231831Z 02010KT 13/08 A3013 RMK A01 T01270075  RH  071%=      5-min Rain = 0
KST3 231832Z 04012KT 13/08 A3013 RMK A01 T01280075  RH  070%=      5-min Rain = 0
KST3 231833Z 02012KT 13/07 A3013 RMK A01 T01260073  RH  070%=      5-min Rain = 0
KST3 231834Z 01013KT 13/07 A3013 RMK A01 T01250072  RH  070%=      5-min Rain = 0
KST3 231835Z 02013KT 12/07 A3013 RMK A01 T01240072  RH  070%=      5-min Rain = 0
KST3 231836Z 02013KT 12/07 A3012 RMK A01 T01240071  RH  070%=      5-min Rain = 0
KST3 231837Z 01013KT 13/07 A3012 RMK A01 T01250069  RH  068%=      5-min Rain = 0
KST3 231838Z 01012KT 13/07 A3012 RMK A01 T01250068  RH  068%=      5-min Rain = 0
KST3 231839Z 03011KT 13/07 A3012 RMK A01 T01270071  RH  069%=      5-min Rain = 0
KST3 231840Z 03012KT 13/07 A3012 RMK A01 T01290068  RH  067%=      5-min Rain = 0
KST3 231841Z 03014KT 13/07 A3012 RMK A01 T01290071  RH  068%=      5-min Rain = 0
KST3 231842Z 03014KT 13/07 A3012 RMK A01 T01300067  RH  066%=      5-min Rain = 0
KST3 231843Z 04012KT 13/07 A3012 RMK A01 T01280066  RH  066%=      5-min Rain = 0
KST3 231844Z 04009KT 13/07 A3012 RMK A01 T01260065  RH  066%=      5-min Rain = 0
KST3 231845Z 03009KT 13/07 A3012 RMK A01 T01260068  RH  068%=      5-min Rain = 0
KST3 231846Z 03009KT 13/07 A3012 RMK A01 T01260070  RH  069%=      5-min Rain = 0
KST3 231847Z 02011KT 13/07 A3012 RMK A01 T01270070  RH  069%=      5-min Rain = 0
KST3 231848Z 02012KT 13/06 A3012 RMK A01 T01270064  RH  066%=      5-min Rain = 0
KST3 231849Z 03010KT 13/06 A3012 RMK A01 T01260064  RH  066%=      5-min Rain = 0
KST3 231850Z 02008KT 13/06 A3012 RMK A01 T01250064  RH  066%=      5-min Rain = 0
KST3 231851Z 02009KT 13/07 A3012 RMK A01 T01250065  RH  067%=      5-min Rain = 0
KST3 231852Z 02011KT 13/07 A3012 RMK A01 T01250066  RH  067%=      5-min Rain = 0
KST3 231853Z 03011KT 13/07 A3012 RMK A01 T01260066  RH  067%=      5-min Rain = 0
KST3 231854Z 03010KT 13/07 A3012 RMK A01 T01260066  RH  067%=      5-min Rain = 0
KST3 231855Z 03008KT 13/07 A3012 RMK A01 T01270066  RH  067%=      5-min Rain = 0
KST3 231856Z 03008KT 13/07 A3012 RMK A01 T01270067  RH  067%=      5-min Rain = 0
KST3 231857Z 04010KT 13/06 A3012 RMK A01 T01260063  RH  065%=      5-min Rain = 0
KST3 231858Z 03009KT 12/06 A3012 RMK A01 T01240061  RH  066%=      5-min Rain = 0
KST3 231859Z 02011KT 12/07 A3012 RMK A01 T01230066  RH  068%=      5-min Rain = 0
KST3 231900Z 02011KT 13/07 A3012 RMK A01 T01250070  RH  069%=      5-min Rain = 0
KST3 231901Z 03010KT 13/07 A3012 RMK A01 T01260067  RH  067%=      5-min Rain = 0
KST3 231902Z 03008KT 13/07 A3012 RMK A01 T01260067  RH  067%=      5-min Rain = 0
KST3 231903Z 03011KT 13/07 A3012 RMK A01 T01260065  RH  067%=      5-min Rain = 0
KST3 231904Z 02009KT 13/06 A3012 RMK A01 T01250061  RH  065%=      5-min Rain = 0
KST3 231905Z 36010KT 12/06 A3012 RMK A01 T01240063  RH  066%=      5-min Rain = 0
KST3 231906Z 02010KT 13/06 A3012 RMK A01 T01250063  RH  066%=      5-min Rain = 0
KST3 231907Z 03009KT 13/06 A3012 RMK A01 T01260060  RH  064%=      5-min Rain = 0
KST3 231908Z 03008KT 13/06 A3012 RMK A01 T01270062  RH  065%=      5-min Rain = 0
KST3 231909Z 04010KT 13/06 A3012 RMK A01 T01280060  RH  063%=      5-min Rain = 0
KST3 231910Z 02009KT 13/06 A3012 RMK A01 T01270060  RH  064%=      5-min Rain = 0
KST3 231911Z 02009KT 13/06 A3012 RMK A01 T01270064  RH  065%=      5-min Rain = 0
KST3 231912Z 03012KT 13/06 A3012 RMK A01 T01280062  RH  064%=      5-min Rain = 0
KST3 231913Z 02012KT 13/06 A3012 RMK A01 T01290056  RH  061%=      5-min Rain = 0
KST3 231914Z 03011KT 13/06 A3012 RMK A01 T01290059  RH  062%=      5-min Rain = 0
KST3 231915Z 03010KT 13/06 A3012 RMK A01 T01290062  RH  064%=      5-min Rain = 0
KST3 231916Z 03009KT 13/06 A3012 RMK A01 T01280058  RH  063%=      5-min Rain = 0
KST3 231917Z 03011KT 13/06 A3012 RMK A01 T01270063  RH  065%=      5-min Rain = 0
KST3 231918Z 02011KT 13/06 A3012 RMK A01 T01280062  RH  064%=      5-min Rain = 0
KST3 231919Z 02009KT 13/06 A3012 RMK A01 T01280063  RH  065%=      5-min Rain = 0
KST3 231920Z 02012KT 13/07 A3012 RMK A01 T01300066  RH  065%=      5-min Rain = 0
KST3 231921Z 02011KT 13/06 A3012 RMK A01 T01300061  RH  063%=      5-min Rain = 0
KST3 231922Z 02010KT 13/06 A3012 RMK A01 T01290059  RH  063%=      5-min Rain = 0
KST3 231923Z 04011KT 13/06 A3012 RMK A01 T01270060  RH  064%=      5-min Rain = 0
KST3 231924Z 02011KT 13/06 A3012 RMK A01 T01260058  RH  063%=      5-min Rain = 0
KST3 231925Z 02011KT 13/06 A3011 RMK A01 T01260060  RH  064%=      5-min Rain = 0
KST3 231926Z 02013KT 13/06 A3012 RMK A01 T01270062  RH  065%=      5-min Rain = 0
KST3 231927Z 01012KT 13/06 A3011 RMK A01 T01270058  RH  063%=      5-min Rain = 0
KST3 231928Z 02009KT 13/06 A3011 RMK A01 T01270060  RH  064%=      5-min Rain = 0
KST3 231929Z 02011KT 13/06 A3011 RMK A01 T01290063  RH  064%=      5-min Rain = 0
KST3 231930Z 02011KT 13/06 A3011 RMK A01 T01290059  RH  062%=      5-min Rain = 0
KST3 231931Z 02011KT 13/06 A3011 RMK A01 T01290059  RH  062%=      5-min Rain = 0
KST3 231932Z 02011KT 13/06 A3011 RMK A01 T01300060  RH  063%=      5-min Rain = 0
KST3 231933Z 03011KT 13/06 A3011 RMK A01 T01300059  RH  062%=      5-min Rain = 0
KST3 231934Z 02011KT 13/06 A3011 RMK A01 T01300058  RH  062%=      5-min Rain = 0
KST3 231935Z 02011KT 13/06 A3011 RMK A01 T01300057  RH  061%=      5-min Rain = 0
KST3 231936Z 02008KT 13/06 A3011 RMK A01 T01290056  RH  061%=      5-min Rain = 0
KST3 231937Z 02010KT 13/06 A3011 RMK A01 T01280058  RH  062%=      5-min Rain = 0
KST3 231938Z 01011KT 13/06 A3011 RMK A01 T01290057  RH  062%=      5-min Rain = 0
KST3 231939Z 01012KT 13/06 A3011 RMK A01 T01290060  RH  063%=      5-min Rain = 0
KST3 231940Z 02010KT 13/06 A3011 RMK A01 T01290059  RH  062%=      5-min Rain = 0
KST3 231941Z 02008KT 13/06 A3011 RMK A01 T01290061  RH  063%=      5-min Rain = 0
KST3 231942Z 01009KT 13/07 A3011 RMK A01 T01310065  RH  064%=      5-min Rain = 0
KST3 231943Z 02009KT 13/07 A3011 RMK A01 T01320066  RH  064%=      5-min Rain = 0
KST3 231944Z 02009KT 13/07 A3011 RMK A01 T01340069  RH  065%=      5-min Rain = 0
KST3 231945Z 02010KT 13/06 A3011 RMK A01 T01340064  RH  062%=      5-min Rain = 0
KST3 231946Z 02009KT 13/07 A3011 RMK A01 T01340065  RH  063%=      5-min Rain = 0
KST3 231947Z 02011KT 13/06 A3011 RMK A01 T01340060  RH  061%=      5-min Rain = 0
KST3 231948Z 02009KT 13/06 A3011 RMK A01 T01320059  RH  061%=      5-min Rain = 0
KST3 231949Z 03012KT 13/06 A3011 RMK A01 T01320061  RH  062%=      5-min Rain = 0
KST3 231950Z 01011KT 13/06 A3011 RMK A01 T01320063  RH  063%=      5-min Rain = 0
KST3 231951Z 01008KT 13/06 A3011 RMK A01 T01310059  RH  062%=      5-min Rain = 0
KST3 231952Z 01008KT 13/06 A3011 RMK A01 T01300060  RH  062%=      5-min Rain = 0
KST3 231953Z 01010KT 13/06 A3011 RMK A01 T01300059  RH  062%=      5-min Rain = 0
KST3 231954Z 01012KT 13/06 A3011 RMK A01 T01290058  RH  062%=      5-min Rain = 0
KST3 231955Z 01012KT 13/06 A3011 RMK A01 T01300057  RH  061%=      5-min Rain = 0
KST3 231956Z 02012KT 13/06 A3011 RMK A01 T01300059  RH  062%=      5-min Rain = 0
KST3 231957Z 03011KT 13/06 A3011 RMK A01 T01300058  RH  062%=      5-min Rain = 0
KST3 231958Z 02011KT 13/06 A3011 RMK A01 T01300057  RH  061%=      5-min Rain = 0
KST3 231959Z 03011KT 13/06 A3011 RMK A01 T01300058  RH  062%=      5-min Rain = 0
KST3 232000Z 03010KT 13/06 A3011 RMK A01 T01300059  RH  062%=      5-min Rain = 0
KST3 232001Z 03010KT 13/06 A3011 RMK A01 T01310057  RH  061%=      5-min Rain = 0
KST3 232002Z 03012KT 13/06 A3011 RMK A01 T01300056  RH  061%=      5-min Rain = 0
KST3 232003Z 03013KT 13/06 A3011 RMK A01 T01310058  RH  061%=      5-min Rain = 0
KST3 232004Z 02010KT 13/06 A3011 RMK A01 T01310057  RH  061%=      5-min Rain = 0
KST3 232005Z 02008KT 13/06 A3011 RMK A01 T01310058  RH  061%=      5-min Rain = 0
KST3 232006Z 01009KT 13/06 A3011 RMK A01 T01310060  RH  062%=      5-min Rain = 0
KST3 232007Z 03009KT 13/06 A3011 RMK A01 T01330061  RH  062%=      5-min Rain = 0
KST3 232008Z 03010KT 13/06 A3011 RMK A01 T01330060  RH  061%=      5-min Rain = 0
KST3 232009Z 04010KT 13/06 A3011 RMK A01 T01320057  RH  060%=      5-min Rain = 0
KST3 232010Z 03008KT 13/06 A3011 RMK A01 T01310057  RH  061%=      5-min Rain = 0
KST3 232011Z 03009KT 13/06 A3011 RMK A01 T01310060  RH  062%=      5-min Rain = 0
KST3 232012Z 02012KT 13/06 A3011 RMK A01 T01320058  RH  061%=      5-min Rain = 0
KST3 232013Z 03012KT 13/05 A3011 RMK A01 T01330053  RH  059%=      5-min Rain = 0
KST3 232014Z 02010KT 13/05 A3011 RMK A01 T01310051  RH  058%=      5-min Rain = 0
KST3 232015Z 02011KT 13/05 A3011 RMK A01 T01310052  RH  059%=      5-min Rain = 0
KST3 232016Z 01008KT 13/06 A3011 RMK A01 T01310055  RH  060%=      5-min Rain = 0
KST3 232017Z 01009KT 13/05 A3011 RMK A01 T01320051  RH  058%=      5-min Rain = 0
KST3 232018Z 02012KT 13/05 A3011 RMK A01 T01320054  RH  059%=      5-min Rain = 0
KST3 232019Z 01009KT 13/05 A3011 RMK A01 T01320051  RH  058%=      5-min Rain = 0
KST3 232020Z 02011KT 13/05 A3011 RMK A01 T01310052  RH  059%=      5-min Rain = 0
KST3 232021Z 02011KT 13/05 A3011 RMK A01 T01320052  RH  058%=      5-min Rain = 0
KST3 232022Z 03009KT 13/05 A3011 RMK A01 T01320049  RH  057%=      5-min Rain = 0
KST3 232023Z 01007KT 13/05 A3011 RMK A01 T01310051  RH  058%=      5-min Rain = 0
KST3 232024Z 01011KT 13/05 A3011 RMK A01 T01310050  RH  058%=      5-min Rain = 0
KST3 232025Z 01009KT 13/05 A3011 RMK A01 T01320047  RH  056%=      5-min Rain = 0
KST3 232026Z 00010KT 13/05 A3011 RMK A01 T01310047  RH  057%=      5-min Rain = 0
KST3 232027Z 02013KT 13/05 A3011 RMK A01 T01310050  RH  058%=      5-min Rain = 0
KST3 232028Z 03011KT 13/05 A3011 RMK A01 T01320051  RH  058%=      5-min Rain = 0
KST3 232029Z 02008KT 13/05 A3011 RMK A01 T01320046  RH  056%=      5-min Rain = 0
KST3 232030Z 02007KT 13/05 A3011 RMK A01 T01310049  RH  057%=      5-min Rain = 0
KST3 232031Z 03012KT 13/05 A3011 RMK A01 T01320049  RH  057%=      5-min Rain = 0
KST3 232032Z 02012KT 13/05 A3011 RMK A01 T01330045  RH  055%=      5-min Rain = 0
KST3 232033Z 03010KT 13/04 A3011 RMK A01 T01330043  RH  055%=      5-min Rain = 0
KST3 232034Z 04009KT 13/05 A3011 RMK A01 T01330046  RH  056%=      5-min Rain = 0
KST3 232035Z 04008KT 14/05 A3011 RMK A01 T01350049  RH  056%=      5-min Rain = 0
KST3 232036Z 04010KT 14/05 A3011 RMK A01 T01370048  RH  055%=      5-min Rain = 0
KST3 232037Z 04009KT 14/04 A3011 RMK A01 T01350040  RH  053%=      5-min Rain = 0
KST3 232038Z 02011KT 13/05 A3011 RMK A01 T01340046  RH  055%=      5-min Rain = 0
KST3 232039Z 03009KT 14/05 A3011 RMK A01 T01350045  RH  054%=      5-min Rain = 0
KST3 232040Z 03010KT 14/05 A3011 RMK A01 T01350046  RH  055%=      5-min Rain = 0
KST3 232041Z 04010KT 14/05 A3011 RMK A01 T01360045  RH  054%=      5-min Rain = 0
KST3 232042Z 03009KT 14/05 A3011 RMK A01 T01360046  RH  055%=      5-min Rain = 0
KST3 232043Z 04008KT 14/04 A3011 RMK A01 T01360043  RH  053%=      5-min Rain = 0
KST3 232044Z 03007KT 13/04 A3011 RMK A01 T01340039  RH  053%=      5-min Rain = 0
KST3 232045Z 02011KT 13/04 A3011 RMK A01 T01330044  RH  055%=      5-min Rain = 0
KST3 232046Z 03010KT 13/04 A3011 RMK A01 T01340044  RH  055%=      5-min Rain = 0
KST3 232047Z 03008KT 13/05 A3011 RMK A01 T01340047  RH  055%=      5-min Rain = 0
KST3 232048Z 04007KT 13/05 A3011 RMK A01 T01340048  RH  056%=      5-min Rain = 0
KST3 232049Z 04008KT 14/05 A3011 RMK A01 T01350047  RH  055%=      5-min Rain = 0
KST3 232050Z 03008KT 14/05 A3011 RMK A01 T01350046  RH  055%=      5-min Rain = 0
KST3 232051Z 03007KT 14/05 A3011 RMK A01 T01350045  RH  054%=      5-min Rain = 0
KST3 232052Z 05007KT 14/05 A3011 RMK A01 T01360051  RH  056%=      5-min Rain = 0
KST3 232053Z 02008KT 14/05 A3011 RMK A01 T01370045  RH  054%=      5-min Rain = 0
KST3 232054Z 03008KT 14/05 A3011 RMK A01 T01360047  RH  055%=      5-min Rain = 0
KST3 232055Z 02011KT 14/05 A3011 RMK A01 T01360047  RH  055%=      5-min Rain = 0
KST3 232056Z 02012KT 14/05 A301 RMK A01 T01360049  RH  056%=      5-min Rain = 0
KST3 232057Z 02011KT 14/05 A3011 RMK A01 T01360051  RH  056%=      5-min Rain = 0
KST3 232058Z 02009KT 14/05 A3011 RMK A01 T01360046  RH  055%=      5-min Rain = 0
KST3 232059Z 03009KT 13/05 A301 RMK A01 T01340046  RH  055%=      5-min Rain = 0
KST3 232100Z 04008KT 13/05 A301 RMK A01 T01340046  RH  055%=      5-min Rain = 0
KST3 232101Z 03007KT 13/05 A301 RMK A01 T01330047  RH  056%=      5-min Rain = 0
KST3 232102Z 02007KT 14/05 A301 RMK A01 T01350049  RH  056%=      5-min Rain = 0
KST3 232103Z 02011KT 14/05 A301 RMK A01 T01370051  RH  056%=      5-min Rain = 0
KST3 232104Z 01012KT 14/05 A301 RMK A01 T01380053  RH  056%=      5-min Rain = 0
KST3 232105Z 01012KT 14/05 A301 RMK A01 T01390052  RH  056%=      5-min Rain = 0
KST3 232106Z 00010KT 14/05 A301 RMK A01 T01380053  RH  057%=      5-min Rain = 0
KST3 232107Z 36011KT 14/05 A301 RMK A01 T01380053  RH  056%=      5-min Rain = 0
KST3 232108Z 36011KT 14/06 A301 RMK A01 T01370055  RH  058%=      5-min Rain = 0
KST3 232109Z 36010KT 14/06 A301 RMK A01 T01380056  RH  058%=      5-min Rain = 0
KST3 232110Z 34009KT 14/06 A301 RMK A01 T01390059  RH  058%=      5-min Rain = 0
KST3 232111Z 34011KT 14/06 A301 RMK A01 T01400057  RH  057%=      5-min Rain = 0
KST3 232112Z 01012KT 14/06 A301 RMK A01 T01410061  RH  059%=      5-min Rain = 0
KST3 232113Z 00013KT 14/06 A301 RMK A01 T01410059  RH  058%=      5-min Rain = 0
KST3 232114Z 36014KT 14/06 A301 RMK A01 T01390056  RH  057%=      5-min Rain = 0
KST3 232115Z 36013KT 14/06 A301 RMK A01 T01380055  RH  057%=      5-min Rain = 0
KST3 232116Z 35013KT 14/06 A301 RMK A01 T01370060  RH  059%=      5-min Rain = 0
KST3 232117Z 34014KT 14/06 A301 RMK A01 T01380057  RH  058%=      5-min Rain = 0
KST3 232118Z 34013KT 14/06 A301 RMK A01 T01380059  RH  059%=      5-min Rain = 0
KST3 232119Z 34013KT 14/06 A301 RMK A01 T01380057  RH  058%=      5-min Rain = 0
KST3 232120Z 34015KT 14/06 A301 RMK A01 T01380057  RH  058%=      5-min Rain = 0
KST3 232121Z 36014KT 14/06 A301 RMK A01 T01400061  RH  059%=      5-min Rain = 0
KST3 232122Z 01012KT 14/06 A301 RMK A01 T01420060  RH  058%=      5-min Rain = 0
KST3 232123Z 02012KT 14/06 A301 RMK A01 T01430061  RH  058%=      5-min Rain = 0
KST3 232124Z 02013KT 14/06 A301 RMK A01 T01420055  RH  056%=      5-min Rain = 0
KST3 232125Z 02011KT 14/06 A301 RMK A01 T01390055  RH  057%=      5-min Rain = 0
KST3 232126Z 36014KT 14/06 A301 RMK A01 T01410060  RH  058%=      5-min Rain = 0
KST3 232127Z 01014KT 14/06 A301 RMK A01 T01430056  RH  056%=      5-min Rain = 0
KST3 232128Z 02012KT 14/05 A301 RMK A01 T01410053  RH  055%=      5-min Rain = 0
KST3 232129Z 35012KT 14/06 A3009 RMK A01 T01410059  RH  058%=      5-min Rain = 0
KST3 232130Z 35013KT 14/06 A301 RMK A01 T01430058  RH  056%=      5-min Rain = 0
KST3 232131Z 36013KT 14/06 A301 RMK A01 T01420056  RH  056%=      5-min Rain = 0
KST3 232132Z 00010KT 14/05 A301 RMK A01 T01390054  RH  057%=      5-min Rain = 0
KST3 232133Z 00012KT 14/06 A3009 RMK A01 T01380055  RH  057%=      5-min Rain = 0
KST3 232134Z 33013KT 14/06 A3009 RMK A01 T01400059  RH  058%=      5-min Rain = 0
KST3 232135Z 33012KT 14/06 A3009 RMK A01 T01420057  RH  056%=      5-min Rain = 0
KST3 232136Z 34012KT 14/06 A3009 RMK A01 T01420055  RH  056%=      5-min Rain = 0
KST3 232137Z 35012KT 14/06 A3009 RMK A01 T01420059  RH  057%=      5-min Rain = 0
KST3 232138Z 35011KT 14/06 A3009 RMK A01 T01440057  RH  056%=      5-min Rain = 0
KST3 232139Z 35011KT 14/06 A3009 RMK A01 T01440058  RH  056%=      5-min Rain = 0
KST3 232140Z 00013KT 14/06 A3009 RMK A01 T01430055  RH  056%=      5-min Rain = 0
KST3 232141Z 35011KT 14/05 A3009 RMK A01 T01400053  RH  056%=      5-min Rain = 0
KST3 232142Z 01013KT 14/05 A3009 RMK A01 T01390053  RH  056%=      5-min Rain = 0
KST3 232143Z 01011KT 14/05 A3009 RMK A01 T01380050  RH  056%=      5-min Rain = 0
KST3 232144Z 02012KT 14/05 A3009 RMK A01 T01360054  RH  057%=      5-min Rain = 0
KST3 232145Z 00013KT 14/05 A3009 RMK A01 T01360053  RH  057%=      5-min Rain = 0
KST3 232146Z 00011KT 14/05 A3009 RMK A01 T01360049  RH  056%=      5-min Rain = 0
KST3 232147Z 36012KT 14/05 A3009 RMK A01 T01350051  RH  057%=      5-min Rain = 0
KST3 232148Z 35012KT 14/05 A3009 RMK A01 T01360049  RH  056%=      5-min Rain = 0
KST3 232149Z 01014KT 14/05 A3009 RMK A01 T01350045  RH  055%=      5-min Rain = 0
KST3 232150Z 35012KT 13/04 A3009 RMK A01 T01340044  RH  055%=      5-min Rain = 0
KST3 232151Z 36012KT 13/04 A3009 RMK A01 T01330043  RH  054%=      5-min Rain = 0
KST3 232152Z 34011KT 13/04 A3009 RMK A01 T01320042  RH  054%=      5-min Rain = 0
KST3 232153Z 36011G16KT 13/04 A3009 RMK A01 T01310043  RH  055%=      5-min Rain = 0
KST3 232154Z 00014KT 13/04 A3009 RMK A01 T01310041  RH  054%=      5-min Rain = 0
KST3 232155Z 36014KT 13/04 A3009 RMK A01 T01310042  RH  055%=      5-min Rain = 0
KST3 232156Z 36012KT 13/04 A3009 RMK A01 T01310041  RH  054%=      5-min Rain = 0
KST3 232157Z 35009KT 13/05 A3009 RMK A01 T01310046  RH  056%=      5-min Rain = 0
KST3 232158Z 36010KT 13/05 A3009 RMK A01 T01320047  RH  056%=      5-min Rain = 0
KST3 232159Z 36012KT 13/04 A3009 RMK A01 T01340043  RH  054%=      5-min Rain = 0
KST3 232200Z 35011KT 13/04 A3009 RMK A01 T01340043  RH  054%=      5-min Rain = 0
KST3 232201Z 35009KT 13/04 A3009 RMK A01 T01330039  RH  053%=      5-min Rain = 0
KST3 232202Z 35011KT 13/04 A3009 RMK A01 T01330041  RH  054%=      5-min Rain = 0
KST3 232203Z 34013KT 13/03 A3009 RMK A01 T01330034  RH  051%=      5-min Rain = 0
KST3 232204Z 35012KT 13/03 A3009 RMK A01 T01310033  RH  051%=      5-min Rain = 0
KST3 232205Z 01012KT 13/03 A3009 RMK A01 T01310034  RH  052%=      5-min Rain = 0
KST3 232206Z 02012KT 13/04 A3009 RMK A01 T01310035  RH  052%=      5-min Rain = 0
KST3 232207Z 36009KT 13/04 A3009 RMK A01 T01330040  RH  053%=      5-min Rain = 0
KST3 232208Z 01010KT 14/04 A3009 RMK A01 T01350042  RH  053%=      5-min Rain = 0
KST3 232209Z 01010KT 14/04 A3009 RMK A01 T01360040  RH  052%=      5-min Rain = 0
KST3 232210Z 00011KT 14/04 A3009 RMK A01 T01360040  RH  052%=      5-min Rain = 0
KST3 232211Z 01012KT 14/04 A3009 RMK A01 T01360040  RH  052%=      5-min Rain = 0
KST3 232212Z 35012KT 14/04 A3009 RMK A01 T01360038  RH  051%=      5-min Rain = 0
KST3 232213Z 34011KT 14/04 A3009 RMK A01 T01350037  RH  051%=      5-min Rain = 0
KST3 232214Z 34010KT 14/04 A3009 RMK A01 T01350037  RH  051%=      5-min Rain = 0
KST3 232215Z 35010KT 14/04 A3009 RMK A01 T01360039  RH  052%=      5-min Rain = 0
KST3 232216Z 36012KT 14/04 A3009 RMK A01 T01380042  RH  052%=      5-min Rain = 0
KST3 232217Z 35011KT 14/05 A3009 RMK A01 T01400045  RH  053%=      5-min Rain = 0
KST3 232218Z 35012KT 14/04 A3009 RMK A01 T01400042  RH  052%=      5-min Rain = 0
KST3 232219Z 34012G17KT 14/05 A3009 RMK A01 T01390047  RH  054%=      5-min Rain = 0
KST3 232220Z 36012G17KT 14/04 A3009 RMK A01 T01390044  RH  053%=      5-min Rain = 0
KST3 232221Z 36011KT 14/04 A3009 RMK A01 T01360044  RH  054%=      5-min Rain = 0
KST3 232222Z 34011KT 14/05 A3009 RMK A01 T01350046  RH  055%=      5-min Rain = 0
KST3 232223Z 35011KT 14/05 A3009 RMK A01 T01350047  RH  055%=      5-min Rain = 0
KST3 232224Z 34010KT 14/05 A3009 RMK A01 T01360051  RH  056%=      5-min Rain = 0
KST3 232225Z 34012KT 14/05 A3009 RMK A01 T01380050  RH  055%=      5-min Rain = 0
KST3 232226Z 35011KT 14/05 A3009 RMK A01 T01380048  RH  054%=      5-min Rain = 0
KST3 232227Z 01008KT 14/05 A3009 RMK A01 T01380050  RH  055%=      5-min Rain = 0
KST3 232228Z 02010KT 14/05 A3009 RMK A01 T01400050  RH  055%=      5-min Rain = 0
KST3 232229Z 01012KT 14/05 A3009 RMK A01 T01410048  RH  053%=      5-min Rain = 0
KST3 232230Z 01013KT 14/05 A3009 RMK A01 T01420052  RH  055%=      5-min Rain = 0
KST3 232231Z 01012KT 14/05 A3009 RMK A01 T01420045  RH  052%=      5-min Rain = 0
KST3 232232Z 00013KT 14/04 A3009 RMK A01 T01410043  RH  052%=      5-min Rain = 0
KST3 232233Z 00009KT 14/04 A3009 RMK A01 T01390040  RH  051%=      5-min Rain = 0
KST3 232234Z 35012KT 14/04 A3009 RMK A01 T01390042  RH  052%=      5-min Rain = 0
KST3 232235Z 34011KT 14/04 A3009 RMK A01 T01390040  RH  051%=      5-min Rain = 0
KST3 232236Z 36010KT 14/04 A3009 RMK A01 T01390041  RH  051%=      5-min Rain = 0
KST3 232237Z 00012KT 14/04 A3009 RMK A01 T01400043  RH  052%=      5-min Rain = 0
KST3 232238Z 35012KT 14/04 A3009 RMK A01 T01410043  RH  051%=      5-min Rain = 0
KST3 232239Z 35012KT 14/04 A3009 RMK A01 T01420042  RH  051%=      5-min Rain = 0
KST3 232240Z 35011KT 14/04 A3009 RMK A01 T01410042  RH  051%=      5-min Rain = 0
KST3 232241Z 34010KT 14/04 A3009 RMK A01 T01390039  RH  051%=      5-min Rain = 0
KST3 232242Z 33010KT 14/04 A3009 RMK A01 T01390044  RH  052%=      5-min Rain = 0
KST3 232243Z 33011KT 14/04 A3009 RMK A01 T01400038  RH  050%=      5-min Rain = 0
KST3 232244Z 35010KT 14/04 A3009 RMK A01 T01390039  RH  051%=      5-min Rain = 0
KST3 232245Z 35009KT 14/04 A3009 RMK A01 T01390040  RH  051%=      5-min Rain = 0
KST3 232246Z 35009KT 14/04 A3009 RMK A01 T01390038  RH  050%=      5-min Rain = 0
KST3 232247Z 01011KT 14/04 A3009 RMK A01 T01390036  RH  050%=      5-min Rain = 0
KST3 232248Z 36010KT 14/04 A3009 RMK A01 T01380035  RH  050%=      5-min Rain = 0
KST3 232249Z 35008KT 14/03 A3009 RMK A01 T01370034  RH  050%=      5-min Rain = 0
KST3 232250Z 00008KT 14/04 A3009 RMK A01 T01380035  RH  050%=      5-min Rain = 0
KST3 232251Z 01009KT 14/03 A3009 RMK A01 T01370032  RH  049%=      5-min Rain = 0
KST3 232252Z 02010KT 14/04 A3009 RMK A01 T01370035  RH  050%=      5-min Rain = 0
KST3 232253Z 01009KT 14/03 A3009 RMK A01 T01380033  RH  049%=      5-min Rain = 0
KST3 232254Z 36008KT 14/03 A3009 RMK A01 T01380034  RH  049%=      5-min Rain = 0
KST3 232255Z 00011KT 14/03 A3009 RMK A01 T01380033  RH  049%=      5-min Rain = 0
KST3 232256Z 01009KT 14/03 A3009 RMK A01 T01380031  RH  048%=      5-min Rain = 0
KST3 232257Z 36008KT 14/03 A3009 RMK A01 T01370030  RH  048%=      5-min Rain = 0
KST3 232258Z 36007KT 14/03 A3009 RMK A01 T01370029  RH  048%=      5-min Rain = 0
KST3 232259Z 36009KT 14/03 A3009 RMK A01 T01360033  RH  050%=      5-min Rain = 0
KST3 232300Z 34010KT 14/04 A3009 RMK A01 T01370040  RH  052%=      5-min Rain = 0
KST3 232301Z 34007KT 14/04 A3009 RMK A01 T01370040  RH  052%=      5-min Rain = 0
KST3 232302Z 35010KT 14/04 A3009 RMK A01 T01360044  RH  054%=      5-min Rain = 0
KST3 232303Z 01010KT 14/04 A3009 RMK A01 T01370044  RH  053%=      5-min Rain = 0
KST3 232304Z 01010KT 14/04 A3009 RMK A01 T01380043  RH  053%=      5-min Rain = 0
KST3 232305Z 00009KT 14/04 A3009 RMK A01 T01380043  RH  053%=      5-min Rain = 0
KST3 232306Z 35009KT 14/04 A3009 RMK A01 T01370043  RH  053%=      5-min Rain = 0
KST3 232307Z 02010KT 14/05 A3009 RMK A01 T01350045  RH  054%=      5-min Rain = 0
KST3 232308Z 36010KT 13/04 A3009 RMK A01 T01330044  RH  055%=      5-min Rain = 0
KST3 232309Z 01011KT 13/05 A3009 RMK A01 T01320046  RH  056%=      5-min Rain = 0
KST3 232310Z 01010KT 13/04 A3009 RMK A01 T01310044  RH  056%=      5-min Rain = 0
KST3 232311Z 01009KT 13/05 A3009 RMK A01 T01300045  RH  056%=      5-min Rain = 0
KST3 232312Z 01010KT 13/05 A3009 RMK A01 T01290045  RH  057%=      5-min Rain = 0
KST3 232313Z 00011KT 13/05 A3009 RMK A01 T01290048  RH  058%=      5-min Rain = 0
KST3 232314Z 01010KT 13/05 A3009 RMK A01 T01300050  RH  058%=      5-min Rain = 0
KST3 232315Z 01010KT 13/05 A3009 RMK A01 T01320050  RH  057%=      5-min Rain = 0
KST3 232316Z 01010KT 13/05 A3009 RMK A01 T01320047  RH  056%=      5-min Rain = 0
KST3 232317Z 01011KT 13/05 A3009 RMK A01 T01310046  RH  056%=      5-min Rain = 0
KST3 232318Z 36012KT 13/05 A3008 RMK A01 T01310049  RH  057%=      5-min Rain = 0
KST3 232319Z 35009KT 13/05 A3008 RMK A01 T01310047  RH  057%=      5-min Rain = 0
KST3 232320Z 01010KT 13/05 A3008 RMK A01 T01310047  RH  057%=      5-min Rain = 0
KST3 232321Z 02010KT 13/05 A3008 RMK A01 T01320051  RH  058%=      5-min Rain = 0
KST3 232322Z 01009KT 13/05 A3008 RMK A01 T01330049  RH  057%=      5-min Rain = 0
KST3 232323Z 00013KT 13/05 A3008 RMK A01 T01320051  RH  058%=      5-min Rain = 0
KST3 232324Z 00010KT 13/05 A3008 RMK A01 T01310050  RH  058%=      5-min Rain = 0
KST3 232325Z 01010KT 13/05 A3008 RMK A01 T01310053  RH  059%=      5-min Rain = 0
KST3 232326Z 01010KT 13/05 A3008 RMK A01 T01310054  RH  060%=      5-min Rain = 0
KST3 232327Z 36012KT 13/05 A3008 RMK A01 T01310054  RH  060%=      5-min Rain = 0
KST3 232328Z 35011KT 13/05 A3008 RMK A01 T01310051  RH  059%=      5-min Rain = 0
KST3 232329Z 34012KT 13/05 A3008 RMK A01 T01300051  RH  059%=      5-min Rain = 0
KST3 232330Z 00012KT 13/05 A3009 RMK A01 T01290053  RH  060%=      5-min Rain = 0
KST3 232331Z 36011KT 13/05 A3009 RMK A01 T01290050  RH  058%=      5-min Rain = 0
KST3 232332Z 35011KT 13/05 A3009 RMK A01 T01280050  RH  059%=      5-min Rain = 0
KST3 232333Z 34010KT 13/05 A3009 RMK A01 T01280049  RH  059%=      5-min Rain = 0
KST3 232334Z 35012KT 13/05 A3008 RMK A01 T01280048  RH  058%=      5-min Rain = 0
KST3 232335Z 34012KT 13/05 A3009 RMK A01 T01270045  RH  057%=      5-min Rain = 0
KST3 232336Z 34011KT 13/04 A3009 RMK A01 T01260044  RH  057%=      5-min Rain = 0
KST3 232337Z 36012KT 13/05 A3009 RMK A01 T01260045  RH  058%=      5-min Rain = 0
KST3 232338Z 35013KT 13/05 A3009 RMK A01 T01260045  RH  058%=      5-min Rain = 0
KST3 232339Z 34012KT 13/05 A3009 RMK A01 T01260048  RH  059%=      5-min Rain = 0
KST3 232340Z 34011KT 13/05 A3009 RMK A01 T01260049  RH  059%=      5-min Rain = 0
KST3 232341Z 33014KT 13/05 A3008 RMK A01 T01260048  RH  059%=      5-min Rain = 0
KST3 232342Z 34012KT 13/05 A3009 RMK A01 T01250049  RH  060%=      5-min Rain = 0
KST3 232343Z 35012KT 13/05 A3009 RMK A01 T01250049  RH  060%=      5-min Rain = 0
KST3 232344Z 35011KT 13/05 A3009 RMK A01 T01250049  RH  060%=      5-min Rain = 0
KST3 232345Z 34014KT 13/05 A3009 RMK A01 T01250048  RH  059%=      5-min Rain = 0
KST3 232346Z 34013KT 13/05 A3008 RMK A01 T01250047  RH  059%=      5-min Rain = 0
KST3 232347Z 34014KT 13/05 A3008 RMK A01 T01260047  RH  059%=      5-min Rain = 0
KST3 232348Z 34012KT 13/05 A3009 RMK A01 T01260048  RH  059%=      5-min Rain = 0
KST3 232349Z 34011KT 13/05 A3009 RMK A01 T01280049  RH  059%=      5-min Rain = 0
KST3 232350Z 34009KT 13/05 A3009 RMK A01 T01300052  RH  059%=      5-min Rain = 0
KST3 232351Z 34010KT 13/05 A3009 RMK A01 T01330053  RH  058%=      5-min Rain = 0
KST3 232352Z 34012KT 13/05 A3008 RMK A01 T01340051  RH  057%=      5-min Rain = 0
KST3 232353Z 34013KT 13/05 A3008 RMK A01 T01320050  RH  057%=      5-min Rain = 0
KST3 232354Z 34013KT 13/05 A3008 RMK A01 T01290049  RH  058%=      5-min Rain = 0
KST3 232355Z 34012KT 13/05 A3008 RMK A01 T01260047  RH  058%=      5-min Rain = 0
KST3 232356Z 34010KT 13/05 A3008 RMK A01 T01250049  RH  060%=      5-min Rain = 0
KST3 232357Z 35012KT 13/05 A3008 RMK A01 T01250051  RH  061%=      5-min Rain = 0
KST3 232358Z 35012KT 13/05 A3008 RMK A01 T01250048  RH  060%=      5-min Rain = 0
KST3 232359Z 35011KT 12/05 A3008 RMK A01 T01240047  RH  059%=      5-min Rain = 0
KST3 240000Z 35010KT 12/05 A3008 RMK A01 T01230047  RH  060%=      5-min Rain = 0
KST3 240001Z 33011KT 12/05 A3008 RMK A01 T01220047  RH  060%=      5-min Rain = 0
KST3 240002Z 33011KT 12/05 A3008 RMK A01 T01220048  RH  061%=      5-min Rain = 0
KST3 240003Z 34011KT 12/05 A3008 RMK A01 T01220049  RH  061%=      5-min Rain = 0
KST3 240004Z 34012KT 12/05 A3008 RMK A01 T01220051  RH  062%=      5-min Rain = 0
KST3 240005Z 34013KT 12/05 A3008 RMK A01 T01210048  RH  061%=      5-min Rain = 0
KST3 240006Z 33012KT 12/05 A3008 RMK A01 T01210047  RH  061%=      5-min Rain = 0
KST3 240007Z 34012KT 12/05 A3008 RMK A01 T01200047  RH  061%=      5-min Rain = 0
KST3 240008Z 34011KT 12/05 A3008 RMK A01 T01190048  RH  062%=      5-min Rain = 0
KST3 240009Z 33010KT 12/05 A3008 RMK A01 T01190048  RH  062%=      5-min Rain = 0
KST3 240010Z 33010KT 12/05 A3008 RMK A01 T01190049  RH  062%=      5-min Rain = 0
KST3 240011Z 33012KT 12/05 A3008 RMK A01 T01190049  RH  062%=      5-min Rain = 0
KST3 240012Z 34010KT 12/05 A3008 RMK A01 T01190049  RH  062%=      5-min Rain = 0
KST3 240013Z 34011KT 12/05 A3008 RMK A01 T01190049  RH  062%=      5-min Rain = 0
KST3 240014Z 35010KT 12/05 A3008 RMK A01 T01190049  RH  062%=      5-min Rain = 0
KST3 240015Z 35011KT 12/05 A3008 RMK A01 T01190049  RH  062%=      5-min Rain = 0
KST3 240016Z 35010KT 12/05 A3008 RMK A01 T01200049  RH  062%=      5-min Rain = 0
KST3 240017Z 36011KT 12/05 A3008 RMK A01 T01200047  RH  061%=      5-min Rain = 0
KST3 240018Z 35008KT 12/05 A3008 RMK A01 T01200048  RH  061%=      5-min Rain = 0
KST3 240019Z 35008G13KT 12/05 A3008 RMK A01 T01210049  RH  061%=      5-min Rain = 0
KST3 240020Z 36011KT 12/05 A3008 RMK A01 T01230050  RH  061%=      5-min Rain = 0
KST3 240021Z 35011KT 12/05 A3008 RMK A01 T01230049  RH  060%=      5-min Rain = 0
KST3 240022Z 00010KT 12/05 A3008 RMK A01 T01230048  RH  060%=      5-min Rain = 0
KST3 240023Z 01011KT 12/05 A3008 RMK A01 T01240048  RH  060%=      5-min Rain = 0
KST3 240024Z 00011KT 12/05 A3008 RMK A01 T01240046  RH  059%=      5-min Rain = 0
KST3 240025Z 35011KT 12/04 A3008 RMK A01 T01240044  RH  058%=      5-min Rain = 0
KST3 240026Z 36010KT 12/04 A3008 RMK A01 T01220043  RH  058%=      5-min Rain = 0
KST3 240027Z 36011KT 12/05 A3008 RMK A01 T01220046  RH  060%=      5-min Rain = 0
KST3 240028Z 36010KT 12/05 A3008 RMK A01 T01220045  RH  059%=      5-min Rain = 0
KST3 240029Z 35011KT 12/05 A3008 RMK A01 T01210046  RH  060%=      5-min Rain = 0
KST3 240030Z 35012KT 12/05 A3008 RMK A01 T01200045  RH  060%=      5-min Rain = 0
KST3 240031Z 35011KT 12/05 A3008 RMK A01 T01180045  RH  061%=      5-min Rain = 0
KST3 240032Z 34012KT 12/04 A3008 RMK A01 T01160044  RH  061%=      5-min Rain = 0
KST3 240033Z 33012KT 11/04 A3008 RMK A01 T01140043  RH  061%=      5-min Rain = 0
KST3 240034Z 33013KT 11/04 A3008 RMK A01 T01130042  RH  061%=      5-min Rain = 0
KST3 240035Z 33012KT 11/04 A3008 RMK A01 T01120041  RH  062%=      5-min Rain = 0
KST3 240036Z 33011KT 11/04 A3008 RMK A01 T01110042  RH  062%=      5-min Rain = 0
KST3 240037Z 33012KT 11/04 A3008 RMK A01 T01100042  RH  063%=      5-min Rain = 0
KST3 240038Z 34011KT 11/04 A3008 RMK A01 T01090042  RH  063%=      5-min Rain = 0
KST3 240039Z 33010KT 11/04 A3008 RMK A01 T01080041  RH  063%=      5-min Rain = 0
KST3 240040Z 34011KT 11/04 A3008 RMK A01 T01070041  RH  063%=      5-min Rain = 0
KST3 240041Z 33011KT 11/04 A3008 RMK A01 T01070041  RH  064%=      5-min Rain = 0
KST3 240042Z 33011KT 11/04 A3008 RMK A01 T01060041  RH  064%=      5-min Rain = 0
KST3 240043Z 33012KT 11/04 A3008 RMK A01 T01060040  RH  064%=      5-min Rain = 0
KST3 240044Z 34010KT 11/04 A3008 RMK A01 T01050041  RH  064%=      5-min Rain = 0
KST3 240045Z 34012KT 10/04 A3008 RMK A01 T01040040  RH  064%=      5-min Rain = 0
KST3 240046Z 34012KT 10/04 A3008 RMK A01 T01040039  RH  064%=      5-min Rain = 0
KST3 240047Z 34011KT 10/04 A3008 RMK A01 T01040040  RH  065%=      5-min Rain = 0
KST3 240048Z 34010KT 10/04 A3008 RMK A01 T01040041  RH  065%=      5-min Rain = 0
KST3 240049Z 34010KT 10/04 A3007 RMK A01 T01030042  RH  066%=      5-min Rain = 0
KST3 240050Z 34012KT 10/04 A3007 RMK A01 T01020041  RH  066%=      5-min Rain = 0
KST3 240051Z 34012KT 10/04 A3007 RMK A01 T01020040  RH  065%=      5-min Rain = 0
KST3 240052Z 34012KT 10/04 A3007 RMK A01 T01020039  RH  065%=      5-min Rain = 0
KST3 240053Z 34011KT 10/04 A3007 RMK A01 T01020039  RH  065%=      5-min Rain = 0
KST3 240054Z 34011KT 10/04 A3007 RMK A01 T01010040  RH  066%=      5-min Rain = 0
KST3 240055Z 34010KT 10/04 A3007 RMK A01 T01010040  RH  066%=      5-min Rain = 0
KST3 240056Z 34010KT 10/04 A3007 RMK A01 T01010040  RH  066%=      5-min Rain = 0
KST3 240057Z 34011KT 10/04 A3007 RMK A01 T01010039  RH  066%=      5-min Rain = 0
KST3 240058Z 34011KT 10/04 A3007 RMK A01 T01000039  RH  066%=      5-min Rain = 0
KST3 240059Z 34011KT 10/04 A3007 RMK A01 T01000039  RH  066%=      5-min Rain = 0
KST3 240100Z 34011KT 10/04 A3007 RMK A01 T01000039  RH  066%=      5-min Rain = 0
KST3 240101Z 34009KT 10/04 A3007 RMK A01 T00990039  RH  066%=      5-min Rain = 0
KST3 240102Z 34009KT 10/04 A3007 RMK A01 T00990040  RH  067%=      5-min Rain = 0
KST3 240103Z 34009KT 10/04 A3007 RMK A01 T00980040  RH  067%=      5-min Rain = 0
KST3 240104Z 34009KT 10/04 A3007 RMK A01 T00980041  RH  068%=      5-min Rain = 0
KST3 240105Z 34009KT 10/04 A3007 RMK A01 T00970041  RH  068%=      5-min Rain = 0
KST3 240106Z 34010KT 10/04 A3007 RMK A01 T00970040  RH  068%=      5-min Rain = 0
KST3 240107Z 34009KT 10/04 A3007 RMK A01 T00970039  RH  067%=      5-min Rain = 0
KST3 240108Z 34010KT 10/04 A3007 RMK A01 T00970040  RH  068%=      5-min Rain = 0
KST3 240109Z 34008KT 10/04 A3007 RMK A01 T00970041  RH  068%=      5-min Rain = 0
KST3 240110Z 34009KT 10/04 A3007 RMK A01 T00970041  RH  068%=      5-min Rain = 0
KST3 240111Z 34010KT 10/04 A3007 RMK A01 T00960041  RH  068%=      5-min Rain = 0
KST3 240112Z 34010KT 10/04 A3007 RMK A01 T00960040  RH  068%=      5-min Rain = 0
KST3 240113Z 35010KT 10/04 A3008 RMK A01 T00970040  RH  068%=      5-min Rain = 0
KST3 240114Z 34009KT 10/04 A3008 RMK A01 T00970040  RH  068%=      5-min Rain = 0
KST3 240115Z 34009KT 10/04 A3008 RMK A01 T00970040  RH  068%=      5-min Rain = 0
KST3 240116Z 35009KT 10/04 A3008 RMK A01 T00970041  RH  068%=      5-min Rain = 0
KST3 240117Z 35008KT 10/04 A3008 RMK A01 T00970040  RH  068%=      5-min Rain = 0
KST3 240118Z 35009KT 10/04 A3008 RMK A01 T00970041  RH  068%=      5-min Rain = 0
KST3 240119Z 35008KT 10/04 A3008 RMK A01 T00970041  RH  068%=      5-min Rain = 0
KST3 240120Z 35009KT 10/04 A3008 RMK A01 T00980042  RH  068%=      5-min Rain = 0
KST3 240121Z 35008KT 10/04 A3008 RMK A01 T00980042  RH  068%=      5-min Rain = 0
KST3 240122Z 35007KT 10/04 A3008 RMK A01 T00970044  RH  069%=      5-min Rain = 0
KST3 240123Z 35007KT 10/04 A3008 RMK A01 T00960043  RH  070%=      5-min Rain = 0
KST3 240124Z 35008KT 10/04 A3008 RMK A01 T00960043  RH  070%=      5-min Rain = 0
KST3 240125Z 35008KT 10/04 A3008 RMK A01 T00960043  RH  070%=      5-min Rain = 0
KST3 240126Z 34009KT 10/04 A3008 RMK A01 T00950043  RH  070%=      5-min Rain = 0
KST3 240127Z 34008KT 10/04 A3008 RMK A01 T00950042  RH  069%=      5-min Rain = 0
KST3 240128Z 35007KT 10/04 A3008 RMK A01 T00950043  RH  070%=      5-min Rain = 0
KST3 240129Z 35007KT 09/04 A3008 RMK A01 T00940044  RH  071%=      5-min Rain = 0
KST3 240130Z 35008KT 09/04 A3008 RMK A01 T00930043  RH  071%=      5-min Rain = 0
KST3 240131Z 35007KT 09/04 A3008 RMK A01 T00930043  RH  071%=      5-min Rain = 0
KST3 240132Z 35007KT 09/04 A3008 RMK A01 T00920043  RH  071%=      5-min Rain = 0
KST3 240133Z 34007KT 09/04 A3008 RMK A01 T00920043  RH  072%=      5-min Rain = 0
KST3 240134Z 35006KT 09/04 A3008 RMK A01 T00910043  RH  072%=      5-min Rain = 0
KST3 240135Z 35006KT 09/04 A3008 RMK A01 T00910043  RH  072%=      5-min Rain = 0
KST3 240136Z 35006KT 09/04 A3008 RMK A01 T00900043  RH  072%=      5-min Rain = 0
KST3 240137Z 35006KT 09/04 A3008 RMK A01 T00900043  RH  073%=      5-min Rain = 0
KST3 240138Z 35007KT 09/04 A3008 RMK A01 T00890043  RH  073%=      5-min Rain = 0
KST3 240139Z 35006KT 09/04 A3008 RMK A01 T00890042  RH  073%=      5-min Rain = 0
KST3 240140Z 35007KT 09/04 A3008 RMK A01 T00890042  RH  072%=      5-min Rain = 0
KST3 240141Z 35007KT 09/04 A3008 RMK A01 T00890042  RH  073%=      5-min Rain = 0
KST3 240142Z 35007KT 09/04 A3008 RMK A01 T00880041  RH  072%=      5-min Rain = 0
KST3 240143Z 35007KT 09/04 A3008 RMK A01 T00880042  RH  073%=      5-min Rain = 0
KST3 240144Z 35006KT 09/04 A3008 RMK A01 T00870042  RH  073%=      5-min Rain = 0
KST3 240145Z 35007KT 09/04 A3008 RMK A01 T00870041  RH  073%=      5-min Rain = 0
KST3 240146Z 35007KT 09/04 A3008 RMK A01 T00870041  RH  073%=      5-min Rain = 0
KST3 240147Z 35007KT 09/04 A3008 RMK A01 T00870041  RH  073%=      5-min Rain = 0
KST3 240148Z 35007KT 09/04 A3008 RMK A01 T00860041  RH  073%=      5-min Rain = 0
KST3 240149Z 35007KT 09/04 A3008 RMK A01 T00860041  RH  073%=      5-min Rain = 0
KST3 240150Z 35006KT 09/04 A3008 RMK A01 T00860041  RH  073%=      5-min Rain = 0
KST3 240151Z 35007KT 09/04 A3008 RMK A01 T00860040  RH  073%=      5-min Rain = 0
KST3 240152Z 35007KT 09/04 A3008 RMK A01 T00860040  RH  073%=      5-min Rain = 0
KST3 240153Z 35007KT 09/04 A3008 RMK A01 T00860040  RH  073%=      5-min Rain = 0
KST3 240154Z 35006KT 09/04 A3008 RMK A01 T00850041  RH  073%=      5-min Rain = 0
KST3 240155Z 35006KT 09/04 A3008 RMK A01 T00850041  RH  074%=      5-min Rain = 0
KST3 240156Z 35006KT 08/04 A3008 RMK A01 T00840041  RH  074%=      5-min Rain = 0
KST3 240157Z 35006KT 08/04 A3008 RMK A01 T00830041  RH  075%=      5-min Rain = 0
KST3 240158Z 35006KT 08/04 A3007 RMK A01 T00830041  RH  075%=      5-min Rain = 0
KST3 240159Z 35006KT 08/04 A3007 RMK A01 T00830041  RH  075%=      5-min Rain = 0
KST3 240200Z 35007KT 08/04 A3007 RMK A01 T00810041  RH  076%=      5-min Rain = 0
KST3 240201Z 34007KT 08/04 A3007 RMK A01 T00810041  RH  076%=      5-min Rain = 0
KST3 240202Z 34007KT 08/04 A3007 RMK A01 T00800040  RH  076%=      5-min Rain = 0
KST3 240203Z 34007KT 08/04 A3007 RMK A01 T00790040  RH  076%=      5-min Rain = 0
KST3 240204Z 34007KT 08/04 A3007 RMK A01 T00780040  RH  077%=      5-min Rain = 0
KST3 240205Z 33006KT 08/04 A3007 RMK A01 T00770040  RH  077%=      5-min Rain = 0
KST3 240206Z 34007KT 08/04 A3007 RMK A01 T00770040  RH  078%=      5-min Rain = 0
KST3 240207Z 34007KT 08/04 A3007 RMK A01 T00750040  RH  078%=      5-min Rain = 0
KST3 240208Z 34007KT 07/04 A3008 RMK A01 T00740039  RH  078%=      5-min Rain = 0
KST3 240209Z 34007KT 07/04 A3008 RMK A01 T00740039  RH  079%=      5-min Rain = 0
KST3 240210Z 34007KT 07/04 A3008 RMK A01 T00740039  RH  078%=      5-min Rain = 0
KST3 240211Z 34007KT 07/04 A3008 RMK A01 T00740038  RH  078%=      5-min Rain = 0
KST3 240212Z 34006KT 07/04 A3008 RMK A01 T00740038  RH  078%=      5-min Rain = 0
KST3 240213Z 33006KT 07/04 A3008 RMK A01 T00740039  RH  079%=      5-min Rain = 0
KST3 240214Z 34007KT 07/04 A3008 RMK A01 T00720039  RH  080%=      5-min Rain = 0
KST3 240215Z 34007KT 07/04 A3008 RMK A01 T00710040  RH  080%=      5-min Rain = 0
KST3 240216Z 34007KT 07/04 A3008 RMK A01 T00700041  RH  081%=      5-min Rain = 0
KST3 240217Z 33008KT 07/04 A3008 RMK A01 T00690040  RH  082%=      5-min Rain = 0
KST3 240218Z 33007KT 07/04 A3008 RMK A01 T00690040  RH  082%=      5-min Rain = 0
KST3 240219Z 33008KT 07/04 A3008 RMK A01 T00690041  RH  082%=      5-min Rain = 0
KST3 240220Z 34008KT 07/04 A3007 RMK A01 T00690041  RH  082%=      5-min Rain = 0
KST3 240221Z 34008KT 07/04 A3007 RMK A01 T00690040  RH  082%=      5-min Rain = 0
KST3 240222Z 34007KT 07/04 A3007 RMK A01 T00690041  RH  082%=      5-min Rain = 0
KST3 240223Z 34008KT 07/04 A3007 RMK A01 T00700041  RH  082%=      5-min Rain = 0
KST3 240224Z 34008KT 07/04 A3007 RMK A01 T00700041  RH  082%=      5-min Rain = 0
KST3 240225Z 34008KT 07/04 A3007 RMK A01 T00710041  RH  081%=      5-min Rain = 0
KST3 240226Z 35008KT 07/04 A3007 RMK A01 T00710041  RH  081%=      5-min Rain = 0
KST3 240227Z 34008KT 07/04 A3007 RMK A01 T00730040  RH  080%=      5-min Rain = 0
KST3 240228Z 34008KT 07/04 A3007 RMK A01 T00740040  RH  079%=      5-min Rain = 0
KST3 240229Z 34008KT 07/04 A3007 RMK A01 T00730040  RH  079%=      5-min Rain = 0
KST3 240230Z 34009KT 07/04 A3008 RMK A01 T00730040  RH  079%=      5-min Rain = 0
KST3 240231Z 35009KT 07/04 A3008 RMK A01 T00730040  RH  079%=      5-min Rain = 0
KST3 240232Z 34009KT 07/04 A3008 RMK A01 T00730040  RH  079%=      5-min Rain = 0
KST3 240233Z 34008KT 07/04 A3008 RMK A01 T00730040  RH  079%=      5-min Rain = 0
KST3 240234Z 34008KT 07/04 A3008 RMK A01 T00720039  RH  080%=      5-min Rain = 0
KST3 240235Z 34008KT 07/04 A3008 RMK A01 T00720039  RH  080%=      5-min Rain = 0
KST3 240236Z 34008KT 07/04 A3008 RMK A01 T00710039  RH  080%=      5-min Rain = 0
KST3 240237Z 34008KT 07/04 A3008 RMK A01 T00710039  RH  080%=      5-min Rain = 0
KST3 240238Z 34008KT 07/04 A3008 RMK A01 T00700040  RH  081%=      5-min Rain = 0
KST3 240239Z 34008KT 07/04 A3008 RMK A01 T00700040  RH  081%=      5-min Rain = 0
KST3 240240Z 34008KT 07/04 A3008 RMK A01 T00690039  RH  081%=      5-min Rain = 0
KST3 240241Z 34008KT 07/04 A3008 RMK A01 T00690039  RH  081%=      5-min Rain = 0
KST3 240242Z 34008KT 07/04 A3008 RMK A01 T00690040  RH  082%=      5-min Rain = 0
KST3 240243Z 34008KT 07/04 A3008 RMK A01 T00690039  RH  082%=      5-min Rain = 0
KST3 240244Z 34008KT 07/04 A3008 RMK A01 T00690039  RH  082%=      5-min Rain = 0
KST3 240245Z 34008KT 07/04 A3008 RMK A01 T00690039  RH  082%=      5-min Rain = 0
KST3 240246Z 34008KT 07/04 A3008 RMK A01 T00690040  RH  082%=      5-min Rain = 0
KST3 240247Z 34008KT 07/04 A3008 RMK A01 T00680040  RH  082%=      5-min Rain = 0
KST3 240248Z 34008KT 07/04 A3008 RMK A01 T00680040  RH  082%=      5-min Rain = 0
KST3 240249Z 34008KT 07/04 A3008 RMK A01 T00670040  RH  082%=      5-min Rain = 0
KST3 240250Z 34008KT 07/04 A3008 RMK A01 T00670039  RH  083%=      5-min Rain = 0
KST3 240251Z 34008KT 07/04 A3008 RMK A01 T00670039  RH  083%=      5-min Rain = 0
KST3 240252Z 34008KT 07/04 A3008 RMK A01 T00670039  RH  083%=      5-min Rain = 0
KST3 240253Z 34008KT 07/04 A3008 RMK A01 T00670039  RH  083%=      5-min Rain = 0
KST3 240254Z 34008KT 07/04 A3008 RMK A01 T00670039  RH  082%=      5-min Rain = 0
KST3 240255Z 34008KT 07/04 A3009 RMK A01 T00670039  RH  082%=      5-min Rain = 0
KST3 240256Z 34008KT 07/04 A3009 RMK A01 T00660039  RH  083%=      5-min Rain = 0
KST3 240257Z 34008KT 07/04 A3008 RMK A01 T00660039  RH  083%=      5-min Rain = 0
KST3 240258Z 34008KT 07/04 A3008 RMK A01 T00660039  RH  083%=      5-min Rain = 0
KST3 240259Z 34008KT 07/04 A3008 RMK A01 T00660039  RH  083%=      5-min Rain = 0
KST3 240300Z 34008KT 07/04 A3008 RMK A01 T00660039  RH  083%=      5-min Rain = 0
KST3 240301Z 34008KT 07/04 A3008 RMK A01 T00660039  RH  083%=      5-min Rain = 0
KST3 240302Z 34008KT 07/04 A3008 RMK A01 T00660039  RH  083%=      5-min Rain = 0
KST3 240303Z 34007KT 07/04 A3008 RMK A01 T00650039  RH  083%=      5-min Rain = 0
KST3 240304Z 34007KT 07/04 A3008 RMK A01 T00660039  RH  083%=      5-min Rain = 0
KST3 240305Z 34008KT 07/04 A3008 RMK A01 T00650039  RH  083%=      5-min Rain = 0
KST3 240306Z 34008KT 07/04 A3008 RMK A01 T00650039  RH  083%=      5-min Rain = 0
KST3 240307Z 34007KT 07/04 A3009 RMK A01 T00650039  RH  083%=      5-min Rain = 0
KST3 240308Z 34007KT 07/04 A3009 RMK A01 T00650039  RH  084%=      5-min Rain = 0
KST3 240309Z 34008KT 07/04 A3009 RMK A01 T00650040  RH  084%=      5-min Rain = 0
KST3 240310Z 34008KT 07/04 A3009 RMK A01 T00650039  RH  084%=      5-min Rain = 0
KST3 240311Z 34007KT 07/04 A3009 RMK A01 T00650039  RH  084%=      5-min Rain = 0
KST3 240312Z 34007KT 06/04 A3009 RMK A01 T00640039  RH  084%=      5-min Rain = 0
KST3 240313Z 34008KT 06/04 A3009 RMK A01 T00640039  RH  084%=      5-min Rain = 0
KST3 240314Z 33007KT 06/04 A3009 RMK A01 T00640039  RH  084%=      5-min Rain = 0
KST3 240315Z 33007KT 06/04 A3009 RMK A01 T00640039  RH  084%=      5-min Rain = 0
KST3 240316Z 34007KT 06/04 A3009 RMK A01 T00630039  RH  084%=      5-min Rain = 0
KST3 240317Z 33007KT 06/04 A3008 RMK A01 T00620039  RH  085%=      5-min Rain = 0
KST3 240318Z 34007KT 06/04 A3008 RMK A01 T00620039  RH  085%=      5-min Rain = 0
KST3 240319Z 34008KT 06/04 A3008 RMK A01 T00610039  RH  086%=      5-min Rain = 0
KST3 240320Z 34008KT 06/04 A3008 RMK A01 T00610039  RH  086%=      5-min Rain = 0
KST3 240321Z 34007KT 06/04 A3008 RMK A01 T00610039  RH  086%=      5-min Rain = 0
KST3 240322Z 34008KT 06/04 A3008 RMK A01 T00610039  RH  086%=      5-min Rain = 0
KST3 240323Z 34007KT 06/04 A3008 RMK A01 T00610039  RH  086%=      5-min Rain = 0
KST3 240324Z 34008KT 06/04 A3008 RMK A01 T00610039  RH  086%=      5-min Rain = 0
KST3 240325Z 34008KT 06/04 A3008 RMK A01 T00610039  RH  086%=      5-min Rain = 0
KST3 240326Z 34008KT 06/04 A3008 RMK A01 T00610039  RH  086%=      5-min Rain = 0
KST3 240327Z 34008KT 06/04 A3008 RMK A01 T00620039  RH  085%=      5-min Rain = 0
KST3 240328Z 34008KT 06/04 A3008 RMK A01 T00620039  RH  085%=      5-min Rain = 0
KST3 240329Z 34008KT 06/04 A3008 RMK A01 T00620039  RH  085%=      5-min Rain = 0
KST3 240330Z 34008KT 06/04 A3008 RMK A01 T00620039  RH  085%=      5-min Rain = 0
KST3 240331Z 34009KT 06/04 A3008 RMK A01 T00620039  RH  085%=      5-min Rain = 0
KST3 240332Z 34009KT 06/04 A3008 RMK A01 T00620039  RH  085%=      5-min Rain = 0
KST3 240333Z 34009KT 06/04 A3008 RMK A01 T00620040  RH  085%=      5-min Rain = 0
KST3 240334Z 34009KT 06/04 A3007 RMK A01 T00620039  RH  085%=      5-min Rain = 0
KST3 240335Z 34009KT 06/04 A3007 RMK A01 T00620039  RH  086%=      5-min Rain = 0
KST3 240336Z 34009KT 06/04 A3007 RMK A01 T00620040  RH  086%=      5-min Rain = 0
KST3 240337Z 34009KT 06/04 A3007 RMK A01 T00620040  RH  086%=      5-min Rain = 0
KST3 240338Z 34009KT 06/04 A3007 RMK A01 T00620040  RH  086%=      5-min Rain = 0
KST3 240339Z 34009KT 06/04 A3007 RMK A01 T00610039  RH  086%=      5-min Rain = 0
KST3 240340Z 34009KT 06/04 A3007 RMK A01 T00610039  RH  086%=      5-min Rain = 0
KST3 240341Z 35009KT 06/04 A3007 RMK A01 T00610039  RH  086%=      5-min Rain = 0
KST3 240342Z 35009KT 06/04 A3007 RMK A01 T00610039  RH  086%=      5-min Rain = 0
KST3 240343Z 35009KT 06/04 A3007 RMK A01 T00610039  RH  086%=      5-min Rain = 0
KST3 240344Z 35008KT 06/04 A3007 RMK A01 T00610039  RH  085%=      5-min Rain = 0
KST3 240345Z 35009KT 06/04 A3007 RMK A01 T00620039  RH  085%=      5-min Rain = 0
KST3 240346Z 35009KT 06/04 A3007 RMK A01 T00620039  RH  085%=      5-min Rain = 0
KST3 240347Z 35008KT 06/04 A3007 RMK A01 T00620039  RH  085%=      5-min Rain = 0
KST3 240348Z 35009KT 06/04 A3007 RMK A01 T00620038  RH  085%=      5-min Rain = 0
KST3 240349Z 35008KT 06/04 A3007 RMK A01 T00620038  RH  085%=      5-min Rain = 0
KST3 240350Z 35008KT 06/04 A3007 RMK A01 T00620038  RH  084%=      5-min Rain = 0
KST3 240351Z 35008KT 06/04 A3007 RMK A01 T00630038  RH  084%=      5-min Rain = 0
KST3 240352Z 35008KT 06/04 A3007 RMK A01 T00620037  RH  084%=      5-min Rain = 0
KST3 240353Z 35007KT 06/04 A3007 RMK A01 T00630037  RH  084%=      5-min Rain = 0
KST3 240354Z 35007KT 06/04 A3007 RMK A01 T00640038  RH  083%=      5-min Rain = 0
KST3 240355Z 34007KT 06/04 A3007 RMK A01 T00630037  RH  084%=      5-min Rain = 0
KST3 240356Z 35007KT 06/04 A3007 RMK A01 T00620037  RH  084%=      5-min Rain = 0
KST3 240357Z 35007KT 06/04 A3007 RMK A01 T00620037  RH  084%=      5-min Rain = 0
KST3 240358Z 35007KT 06/04 A3007 RMK A01 T00620037  RH  084%=      5-min Rain = 0
KST3 240359Z 34008KT 06/04 A3007 RMK A01 T00610037  RH  084%=      5-min Rain = 0
KST3 240400Z 34008KT 06/04 A3007 RMK A01 T00610037  RH  085%=      5-min Rain = 0
KST3 240401Z 35008KT 06/04 A3007 RMK A01 T00600037  RH  085%=      5-min Rain = 0
KST3 240402Z 34008KT 06/04 A3007 RMK A01 T00600037  RH  085%=      5-min Rain = 0
KST3 240403Z 34008KT 06/04 A3007 RMK A01 T00590037  RH  085%=      5-min Rain = 0
KST3 240404Z 34008KT 06/04 A3007 RMK A01 T00590037  RH  086%=      5-min Rain = 0
KST3 240405Z 34008KT 06/04 A3007 RMK A01 T00590037  RH  086%=      5-min Rain = 0
KST3 240406Z 34008KT 06/04 A3007 RMK A01 T00590037  RH  086%=      5-min Rain = 0
KST3 240407Z 35009KT 06/04 A3007 RMK A01 T00590037  RH  086%=      5-min Rain = 0
KST3 240408Z 34009KT 06/04 A3007 RMK A01 T00590037  RH  086%=      5-min Rain = 0
KST3 240409Z 34009KT 06/04 A3006 RMK A01 T00600037  RH  085%=      5-min Rain = 0
KST3 240410Z 35008KT 06/04 A3006 RMK A01 T00600037  RH  085%=      5-min Rain = 0
KST3 240411Z 34009KT 06/04 A3006 RMK A01 T00600037  RH  085%=      5-min Rain = 0
KST3 240412Z 34009KT 06/04 A3006 RMK A01 T00600037  RH  085%=      5-min Rain = 0
KST3 240413Z 34009KT 06/04 A3006 RMK A01 T00600037  RH  085%=      5-min Rain = 0
KST3 240414Z 34009KT 06/04 A3006 RMK A01 T00600037  RH  085%=      5-min Rain = 0
KST3 240415Z 34009KT 06/04 A3006 RMK A01 T00600037  RH  085%=      5-min Rain = 0
KST3 240416Z 34009KT 06/04 A3006 RMK A01 T00600037  RH  085%=      5-min Rain = 0
KST3 240417Z 34009KT 06/04 A3006 RMK A01 T00600037  RH  085%=      5-min Rain = 0
KST3 240418Z 34009KT 06/04 A3006 RMK A01 T00590036  RH  085%=      5-min Rain = 0
KST3 240419Z 34009KT 06/04 A3006 RMK A01 T00590036  RH  085%=      5-min Rain = 0
KST3 240420Z 34008KT 06/04 A3006 RMK A01 T00590036  RH  085%=      5-min Rain = 0
KST3 240421Z 34007KT 06/04 A3006 RMK A01 T00590036  RH  085%=      5-min Rain = 0
KST3 240422Z 34007KT 06/04 A3006 RMK A01 T00590036  RH  085%=      5-min Rain = 0
KST3 240423Z 34007KT 06/04 A3006 RMK A01 T00590036  RH  085%=      5-min Rain = 0
KST3 240424Z 34007KT 06/04 A3006 RMK A01 T00580035  RH  085%=      5-min Rain = 0
KST3 240425Z 34007KT 06/04 A3006 RMK A01 T00590036  RH  085%=      5-min Rain = 0
KST3 240426Z 34007KT 06/04 A3006 RMK A01 T00590035  RH  085%=      5-min Rain = 0
KST3 240427Z 34007KT 06/04 A3006 RMK A01 T00590035  RH  085%=      5-min Rain = 0
KST3 240428Z 34007KT 06/04 A3006 RMK A01 T00590036  RH  085%=      5-min Rain = 0
KST3 240429Z 34006KT 06/04 A3006 RMK A01 T00590036  RH  085%=      5-min Rain = 0
KST3 240430Z 34007KT 06/04 A3006 RMK A01 T00590035  RH  085%=      5-min Rain = 0
KST3 240431Z 34007KT 06/04 A3006 RMK A01 T00590035  RH  085%=      5-min Rain = 0
KST3 240432Z 34007KT 06/04 A3006 RMK A01 T00580035  RH  085%=      5-min Rain = 0
KST3 240433Z 34007KT 06/04 A3006 RMK A01 T00580035  RH  085%=      5-min Rain = 0
KST3 240434Z 34007KT 06/04 A3006 RMK A01 T00580035  RH  085%=      5-min Rain = 0
KST3 240435Z 34007KT 06/04 A3006 RMK A01 T00580035  RH  085%=      5-min Rain = 0
KST3 240436Z 34007KT 06/03 A3006 RMK A01 T00580034  RH  085%=      5-min Rain = 0
KST3 240437Z 34007KT 06/03 A3006 RMK A01 T00580034  RH  085%=      5-min Rain = 0
KST3 240438Z 34007KT 06/03 A3006 RMK A01 T00580034  RH  085%=      5-min Rain = 0
KST3 240439Z 34006KT 06/03 A3006 RMK A01 T00570034  RH  085%=      5-min Rain = 0
KST3 240440Z 34007KT 06/03 A3006 RMK A01 T00580034  RH  085%=      5-min Rain = 0
KST3 240441Z 34007KT 06/03 A3006 RMK A01 T00580034  RH  085%=      5-min Rain = 0
KST3 240442Z 34006KT 06/03 A3006 RMK A01 T00580034  RH  085%=      5-min Rain = 0
KST3 240443Z 34006KT 06/03 A3006 RMK A01 T00580034  RH  085%=      5-min Rain = 0
KST3 240444Z 35005KT 06/03 A3006 RMK A01 T00580034  RH  085%=      5-min Rain = 0
KST3 240445Z 35005KT 06/03 A3006 RMK A01 T00580034  RH  085%=      5-min Rain = 0
KST3 240446Z 34005KT 06/03 A3006 RMK A01 T00570034  RH  085%=      5-min Rain = 0
KST3 240447Z 34006KT 06/03 A3006 RMK A01 T00580034  RH  085%=      5-min Rain = 0
KST3 240448Z 34005KT 06/03 A3006 RMK A01 T00570033  RH  085%=      5-min Rain = 0
KST3 240449Z 34006KT 06/03 A3006 RMK A01 T00580033  RH  084%=      5-min Rain = 0
KST3 240450Z 34006KT 06/03 A3006 RMK A01 T00570033  RH  085%=      5-min Rain = 0
KST3 240451Z 34006KT 06/03 A3006 RMK A01 T00570034  RH  085%=      5-min Rain = 0
KST3 240452Z 34006KT 06/03 A3006 RMK A01 T00570033  RH  085%=      5-min Rain = 0
KST3 240453Z 34006KT 06/03 A3005 RMK A01 T00570033  RH  085%=      5-min Rain = 0
KST3 240454Z 34006KT 06/03 A3005 RMK A01 T00570033  RH  085%=      5-min Rain = 0
KST3 240455Z 34005KT 06/03 A3005 RMK A01 T00570033  RH  085%=      5-min Rain = 0
KST3 240456Z 34005KT 06/03 A3005 RMK A01 T00570033  RH  085%=      5-min Rain = 0
KST3 240457Z 34005KT 06/03 A3005 RMK A01 T00570033  RH  085%=      5-min Rain = 0
KST3 240458Z 34005KT 06/03 A3005 RMK A01 T00560033  RH  085%=      5-min Rain = 0
KST3 240459Z 34005KT 06/03 A3005 RMK A01 T00560033  RH  085%=      5-min Rain = 0

Page generated in 0.0718 seconds.